GFSSE_925_spd_000.txt.gz
Wind_Speed
6 3 4 4 5 5 6 5 3 8 10 12 15 19 21 20 17 16 15 14 15 15 14 14 15 14 12 10 10 11 11 9 9 8 8 7 7 8 10 12 14 10 12
3 6 6 4 5 5 5 5 3 2 5 6 10 12 14 13 12 15 16 15 15 14 12 11 11 12 11 12 10 10 10 9 8 8 7 5 4 7 10 11 13 11 14
7 6 5 5 5 6 6 6 3 4 5 2 9 13 14 14 11 11 14 15 14 12 11 11 11 11 9 8 8 9 10 9 9 8 7 6 5 5 7 10 13 12 17
4 5 4 5 6 4 7 9 8 4 4 4 12 12 9 8 16 10 22 13 12 11 10 11 11 11 10 7 6 10 9 9 9 8 6 7 7 7 8 11 12 13 15
5 5 5 5 4 4 3 5 5 8 8 8 12 9 1 5 9 20 21 18 13 12 9 8 8 8 9 10 11 12 12 10 9 7 8 7 7 9 9 12 13 15 16
5 6 4 5 4 2 1 2 3 5 7 9 10 10 4 5 7 13 17 16 12 9 8 6 6 7 6 10 11 13 14 12 10 9 8 7 7 10 11 13 14 18 19
6 5 5 4 3 3 2 2 2 2 2 3 4 6 6 3 8 9 10 9 7 9 8 8 7 8 10 11 10 13 13 12 10 9 8 8 8 11 12 15 18 19 16
7 5 5 5 4 4 3 2 2 3 4 5 6 6 7 8 5 8 7 5 5 5 7 8 7 7 6 8 10 10 11 11 11 9 10 10 11 13 14 16 17 17 17
6 4 3 3 4 6 4 3 4 4 5 5 6 7 7 7 8 9 9 7 7 8 9 8 8 7 8 8 8 8 10 11 11 9 9 11 13 16 15 17 16 17 18
5 5 5 3 3 3 3 6 5 3 5 5 6 6 7 7 8 8 10 11 11 13 13 12 12 12 11 9 8 9 11 11 12 9 9 13 13 16 17 16 18 19 20
4 6 5 3 3 3 3 4 6 6 4 3 4 5 3 1 3 6 6 8 9 14 14 14 13 12 11 10 11 11 9 6 10 8 9 12 17 18 19 19 19 21 23
4 5 5 2 3 3 1 0 3 3 4 5 3 2 1 8 12 15 11 21 24 21 21 16 12 11 8 8 8 8 9 10 12 11 10 15 17 20 20 20 23 22 23
3 4 5 3 1 1 1 2 2 6 4 4 5 4 1 4 7 11 13 24 37 27 21 24 16 8 9 12 13 16 19 23 22 22 16 22 22 23 21 22 24 23 21
3 3 4 6 6 7 6 7 8 8 9 8 8 7 4 3 1 5 8 14 20 20 23 29 20 10 19 17 19 19 21 24 23 26 26 19 26 25 26 25 25 27 26
4 3 2 5 6 7 8 8 10 9 9 9 9 9 7 6 5 3 3 5 6 5 11 19 16 15 17 24 20 19 18 20 24 29 30 26 24 26 29 28 27 27 28
3 3 3 4 5 6 8 9 9 8 8 9 9 9 8 6 5 3 3 6 8 12 19 22 28 21 22 17 17 16 19 18 19 25 24 34 32 23 30 34 31 30 30
5 5 5 5 7 8 8 8 8 8 8 9 10 10 10 9 7 4 4 7 9 7 9 20 24 24 25 22 19 16 18 19 21 21 22 25 32 33 28 37 39 33 34
7 7 6 5 7 8 8 7 8 8 8 9 9 9 9 9 8 6 5 5 6 8 8 8 7 7 11 17 22 19 22 20 20 22 22 26 27 25 25 29 42 40 36
8 8 7 7 7 7 8 8 8 7 7 7 8 7 7 7 6 6 5 5 7 8 8 10 10 8 10 9 13 20 24 23 22 22 19 23 28 29 26 27 33 42 41
10 9 8 7 7 7 7 7 6 6 5 4 5 5 4 4 4 5 5 5 6 7 8 10 10 10 10 11 16 16 17 23 23 19 19 20 26 31 30 31 31 35 46
12 11 10 10 9 8 7 6 6 5 5 3 2 3 2 1 2 4 5 7 7 7 7 9 10 11 12 13 14 14 16 17 24 21 20 21 22 31 33 33 31 33 36
18 16 13 12 11 10 9 7 7 6 5 4 4 5 5 4 4 4 6 8 9 11 11 10 11 12 11 11 10 16 6 9 12 18 25 25 26 23 32 32 28 36 32
21 18 17 15 14 13 11 8 7 8 8 8 8 7 7 8 7 7 8 10 11 12 13 14 14 14 15 14 8 7 5 4 12 9 12 23 24 22 25 33 34 30 32
22 20 19 18 17 16 14 12 12 11 11 9 9 10 9 8 9 9 11 12 13 14 15 17 17 18 19 19 18 13 14 16 6 8 10 13 13 23 24 24 29 32 31
20 21 20 20 19 18 15 15 13 14 13 12 11 11 10 9 8 10 11 13 15 17 19 20 20 21 22 24 22 22 20 19 20 13 12 14 15 14 13 23 24 35 33
20 21 20 21 22 20 17 17 18 17 16 13 11 9 9 8 10 11 11 13 15 18 20 22 24 25 26 27 28 27 25 19 18 15 12 13 15 20 19 15 28 36 40

GFSSE_925_spd_006.txt.gz
Wind_Speed
12 7 9 9 10 8 8 12 8 5 3 2 2 4 6 9 11 9 9 6 5 3 4 4 7 9 9 9 7 5 3 3 1 1 2 1 2 3 5 6 7 6 11
8 5 10 10 10 10 10 9 11 10 6 2 2 2 6 8 11 15 10 6 3 2 8 11 12 13 13 11 7 7 6 5 3 1 1 3 4 6 7 7 9 10 11
8 7 10 11 10 9 8 8 10 10 10 8 4 2 2 6 10 11 15 7 8 18 22 14 15 16 13 11 11 9 8 7 6 4 3 6 6 7 8 11 5 9 10
10 13 11 10 10 9 7 8 8 10 9 7 4 3 3 5 7 8 8 15 18 26 26 20 14 17 14 11 11 10 9 9 7 6 5 7 16 8 7 12 11 10 10
10 12 10 9 10 10 8 7 7 8 8 8 6 6 3 3 5 5 8 13 12 16 16 5 5 18 14 10 9 9 9 9 8 7 7 11 7 10 7 12 14 13 12
11 10 8 8 10 9 9 8 7 5 6 6 6 4 5 3 4 4 3 9 7 11 10 11 11 18 18 10 9 6 8 10 10 10 9 10 10 10 6 8 12 12 16
10 8 7 9 9 9 7 7 6 5 4 5 4 5 4 3 5 6 5 3 4 7 8 7 18 20 30 16 14 10 10 11 10 10 19 14 9 12 8 8 14 12 17
9 7 7 8 8 8 7 5 3 2 2 1 1 1 2 3 2 4 5 6 4 2 5 8 8 16 12 5 6 9 10 10 9 11 15 14 18 14 12 10 14 16 18
7 7 5 2 5 6 7 6 3 1 2 3 3 2 2 1 2 2 3 4 5 4 7 14 10 6 4 6 6 8 11 11 12 12 17 15 11 13 12 12 12 16 21
4 6 5 2 6 5 2 7 5 4 1 2 2 3 2 2 2 2 1 4 5 5 4 7 10 8 3 6 7 8 8 9 11 12 13 9 7 10 10 12 15 18 20
5 6 4 5 4 1 5 2 2 7 5 4 4 2 4 5 3 1 2 4 2 1 5 1 2 3 3 2 8 11 12 12 10 12 14 10 9 9 11 13 17 20 20
5 6 7 6 5 4 5 2 4 5 4 2 2 3 2 3 2 4 3 3 5 8 11 12 7 4 1 3 9 8 10 10 11 16 14 16 14 14 15 16 20 21 22
6 5 6 6 5 4 5 2 2 3 3 4 4 3 2 2 3 0 4 3 4 7 7 9 10 16 19 12 9 13 13 14 9 11 14 15 19 20 19 19 22 22 24
3 3 2 2 3 5 4 6 7 6 5 4 3 2 3 2 2 2 1 1 4 6 7 8 12 13 14 21 24 23 18 23 18 20 23 21 22 25 21 21 24 27 25
4 4 5 5 5 4 4 4 4 7 7 5 4 5 4 3 4 5 3 2 2 3 6 9 11 11 14 11 8 20 21 22 23 20 25 26 27 28 26 23 24 25 27
8 6 7 6 5 4 4 6 8 8 7 5 5 3 3 3 3 2 2 2 3 4 6 8 8 13 17 19 18 19 24 23 26 26 28 22 23 25 31 30 26 26 27
10 8 7 7 6 6 7 7 6 6 6 6 5 3 4 2 3 3 1 0 1 5 7 9 10 8 10 15 17 17 17 22 26 29 26 27 27 25 26 31 34 33 27
8 11 10 10 11 11 10 11 10 9 8 8 7 6 5 6 5 2 1 1 4 2 4 6 10 12 12 13 15 16 18 20 21 22 26 26 27 29 24 24 29 39 39
11 10 11 10 9 11 10 9 10 9 10 11 11 10 7 5 4 4 3 2 2 3 4 5 9 11 13 14 16 16 19 22 24 25 27 25 26 30 27 24 23 26 34
10 11 10 11 12 12 11 11 9 10 12 10 11 13 11 10 6 5 4 3 2 4 4 7 9 11 13 16 15 19 20 22 22 25 26 27 29 32 31 30 29 25 29
10 10 12 13 13 13 13 12 13 13 14 14 15 14 10 10 9 7 5 2 3 5 6 8 9 10 15 17 20 18 16 23 22 26 21 21 28 27 28 29 27 32 26
11 14 15 16 15 16 15 16 17 16 18 21 18 19 17 12 12 10 10 7 6 5 8 11 11 11 13 16 15 18 6 16 19 21 19 19 15 17 23 25 29 29 31
13 15 16 18 19 19 21 20 19 19 17 13 15 13 17 20 17 15 13 11 10 8 8 10 14 17 18 15 17 16 7 6 13 25 24 27 20 24 23 23 20 28 28
15 16 17 19 20 21 21 22 24 19 18 22 24 24 29 27 21 18 14 13 11 9 10 12 12 13 17 18 19 19 23 24 9 12 17 23 24 27 24 25 26 21 24
7 9 16 18 21 23 23 24 27 26 22 22 16 15 12 10 9 7 8 11 13 9 9 12 15 19 19 20 20 19 21 24 24 12 13 13 21 20 22 25 28 24 22
9 7 11 17 22 25 26 27 26 28 25 17 19 10 8 7 7 3 3 3 5 8 10 13 16 19 21 23 24 24 23 18 17 15 11 14 13 21 23 25 28 27 28

GFSSE_925_spd_009.txt.gz
Wind_Speed
13 12 11 11 13 13 14 14 12 10 9 10 10 8 9 11 11 12 16 19 14 8 2 1 3 4 8 6 3 1 3 5 3 3 5 8 11 13 14 19 13 8 11
8 11 11 11 11 13 12 14 15 13 11 10 9 8 8 9 10 10 11 12 15 11 6 5 8 7 6 8 7 4 4 4 4 4 2 3 4 7 9 15 13 11 9
12 10 12 11 10 11 11 12 13 15 15 13 7 8 7 9 11 10 9 10 5 3 4 5 2 8 7 6 10 9 8 7 5 5 4 3 0 3 5 11 9 12 12
14 10 12 11 12 11 9 10 11 11 11 11 9 7 6 8 9 9 6 9 5 8 3 8 7 10 13 11 16 12 11 9 8 6 6 5 4 4 6 10 12 13 12
9 11 11 10 11 11 10 11 10 10 10 9 9 8 3 4 7 7 9 13 10 5 2 8 4 7 6 11 19 15 14 12 9 10 10 8 9 13 6 10 15 15 13
10 12 12 11 12 11 10 10 10 9 8 8 6 5 5 4 3 4 3 5 3 2 4 8 12 8 9 13 20 23 18 16 13 11 12 8 10 12 8 8 14 15 14
11 12 12 12 12 10 10 9 8 8 7 7 7 5 2 3 4 2 2 5 5 5 5 10 10 19 14 16 15 21 22 21 16 12 14 8 12 13 12 9 13 16 18
13 11 11 10 12 11 10 8 6 5 5 5 5 4 4 3 4 4 3 2 3 3 3 4 3 10 9 8 10 14 17 18 15 14 15 12 14 19 14 12 14 16 18
12 9 9 9 10 11 10 9 7 5 3 2 2 3 2 3 4 5 4 3 2 4 5 5 5 2 1 1 6 10 12 13 15 17 16 10 8 20 14 12 13 17 18
14 15 12 6 9 8 6 10 10 9 5 3 2 2 0 4 4 4 3 4 4 5 7 6 7 9 7 6 6 6 7 8 11 16 14 9 7 14 13 13 13 15 20
16 8 3 7 7 4 1 8 8 10 9 8 9 6 3 4 4 3 2 4 6 8 6 4 4 6 8 6 7 7 9 10 12 13 13 12 10 13 14 15 14 16 19
17 10 2 1 4 4 3 7 8 8 8 7 7 6 6 8 3 3 3 3 5 6 6 6 6 5 8 9 9 9 10 11 10 12 13 18 18 14 14 16 16 19 23
11 6 1 1 4 5 5 6 8 7 8 6 7 6 8 8 9 8 4 3 5 8 6 3 3 10 13 13 13 9 7 9 10 11 12 6 12 14 17 18 20 20 24
15 8 3 2 5 7 4 10 8 10 9 9 7 7 2 5 3 6 8 6 5 3 4 6 6 6 8 11 14 20 23 24 18 16 15 19 20 21 17 18 18 20 26
8 10 5 3 5 6 4 8 10 11 10 7 6 7 5 7 5 6 4 4 3 2 5 7 7 9 11 14 16 18 16 16 14 18 27 25 24 27 29 24 22 21 23
6 11 8 5 5 6 7 9 8 8 8 7 6 6 7 5 6 7 6 5 5 5 6 6 8 9 10 13 15 16 18 21 21 23 23 25 31 27 27 28 28 24 24
13 12 9 7 9 8 8 8 8 9 8 9 9 8 7 7 10 7 7 5 4 2 3 4 7 9 9 9 9 12 15 17 22 22 24 25 25 29 27 28 27 28 29
15 14 11 5 11 8 9 8 8 11 11 11 10 10 9 9 5 6 6 8 6 2 4 6 5 8 10 12 13 13 10 15 20 22 24 24 25 28 29 29 27 26 28
15 14 11 10 8 7 10 9 10 14 11 12 14 13 11 10 8 6 8 6 2 3 3 3 8 9 11 13 16 16 18 19 19 22 22 22 24 27 29 31 26 28 25
13 11 9 10 10 10 12 12 10 10 12 13 18 16 15 12 10 9 8 9 4 5 7 4 5 5 8 14 18 19 17 18 24 25 21 18 20 23 27 32 32 29 27
11 9 8 8 9 12 14 11 14 13 16 16 18 16 21 17 15 13 11 8 9 7 4 1 5 7 11 11 17 17 21 18 19 24 22 24 20 24 17 19 28 32 32
9 7 8 13 15 16 18 20 20 19 22 24 25 22 24 20 19 17 14 14 11 9 9 8 6 5 8 12 8 14 4 16 16 17 31 27 27 23 25 26 18 19 25
11 14 16 17 17 20 23 24 22 23 26 19 15 24 24 25 24 22 18 14 13 12 9 8 8 11 15 9 11 6 3 4 12 19 20 23 24 27 26 27 23 20 21
13 16 16 17 18 18 21 28 29 29 26 30 31 24 22 25 27 25 21 18 13 10 7 6 3 4 11 14 17 17 19 22 7 11 16 20 23 25 24 23 24 24 23
2 2 11 15 17 19 20 21 29 32 34 30 22 24 15 15 17 24 18 11 7 5 7 7 6 9 13 17 18 20 22 24 22 10 13 16 24 25 26 26 27 30 29
5 2 5 12 17 21 23 25 29 29 35 35 25 21 15 12 12 13 14 11 9 6 3 10 15 20 23 27 30 28 24 15 16 16 10 14 16 23 25 30 32 33 30

GFSSE_925_spd_012.txt.gz
Wind_Speed
10 9 8 10 15 14 13 10 9 8 13 11 10 12 12 13 15 16 15 13 14 12 12 18 15 12 11 8 5 3 1 3 3 2 4 5 6 7 10 12 9 13 15
12 9 9 11 12 14 14 14 11 9 12 8 8 10 10 9 10 11 10 11 10 11 10 8 7 12 13 15 11 4 5 4 1 1 3 7 9 9 10 15 9 11 13
11 8 9 10 11 12 14 14 14 13 11 8 5 7 7 8 7 5 6 9 6 2 2 2 6 8 8 10 15 12 3 9 7 4 4 5 7 9 10 15 12 11 12
8 9 8 10 11 11 12 12 11 11 9 6 5 6 7 7 7 5 7 10 6 5 3 3 3 3 7 12 12 10 5 6 13 11 8 7 7 7 8 11 11 12 14
7 7 9 10 11 11 10 9 9 8 7 6 7 6 6 8 8 9 10 11 11 6 6 3 1 6 12 16 14 9 10 17 15 15 12 10 9 10 12 11 14 15 14
7 8 9 9 10 9 9 8 8 8 7 7 6 6 5 5 5 6 10 9 7 4 4 3 1 2 8 7 8 9 15 21 16 18 15 13 12 15 17 14 16 17 16
12 11 10 10 10 9 8 8 6 6 7 6 6 6 5 4 2 1 2 2 3 4 3 5 4 9 6 7 14 13 11 16 14 16 17 14 9 11 18 17 17 19 19
13 12 9 9 10 10 7 6 5 5 4 5 4 4 5 5 3 1 1 2 2 3 3 3 2 10 11 11 13 11 11 12 13 16 19 16 13 10 20 18 17 18 20
13 13 12 12 11 8 8 6 4 4 4 5 4 4 5 5 6 5 2 0 1 1 1 1 2 7 5 6 5 7 9 11 13 16 18 15 15 16 22 20 18 17 19
14 11 11 10 10 8 7 7 5 5 4 3 4 4 4 4 4 4 3 2 1 0 2 2 2 5 6 6 6 8 10 12 13 12 14 16 14 12 19 20 17 17 19
19 16 14 10 8 7 7 9 9 7 8 7 4 6 5 4 3 3 2 3 4 4 3 2 2 4 5 4 6 7 11 13 15 14 14 14 10 12 16 18 16 17 19
20 16 11 6 7 8 8 10 10 8 6 6 6 6 6 5 2 1 1 2 3 3 4 5 5 6 7 7 6 6 8 10 12 14 11 12 13 14 16 16 18 18 19
15 11 7 4 8 7 8 14 12 9 8 7 7 7 8 7 6 7 6 5 5 6 8 6 4 4 8 10 11 11 8 7 11 13 14 12 8 11 15 16 19 19 20
17 11 6 3 7 3 7 11 9 9 9 9 6 6 5 7 6 6 7 7 5 4 5 5 6 7 7 8 10 10 11 14 19 23 20 20 19 18 16 17 17 20 22
17 12 6 2 6 5 6 11 11 11 12 12 10 9 8 9 7 7 9 7 6 5 4 6 7 8 11 11 11 13 14 15 15 14 17 20 23 24 23 20 20 22 22
20 16 12 8 6 8 6 7 7 9 9 9 10 9 8 8 8 9 9 8 7 6 6 6 5 6 8 10 11 11 11 13 14 17 19 19 20 23 26 27 23 23 24
19 17 15 11 8 8 9 9 9 11 12 13 12 11 10 11 9 9 10 10 9 7 6 3 4 4 5 7 9 10 10 9 15 18 20 22 22 21 23 25 27 25 25
17 19 16 11 8 8 7 9 10 12 12 13 14 14 12 12 12 12 11 10 7 6 5 3 2 4 5 7 9 11 12 14 16 17 19 22 21 20 21 24 25 27 27
17 20 16 12 10 10 8 10 11 12 16 15 16 17 15 13 13 12 12 11 9 9 8 7 4 4 4 7 10 12 12 12 15 18 17 17 18 17 20 20 22 24 29
18 17 12 11 10 10 10 11 13 15 16 18 19 20 20 17 15 15 14 14 11 11 12 11 7 5 6 7 8 12 12 15 17 13 23 16 20 20 22 17 21 19 25
18 15 13 12 12 13 14 15 16 18 18 20 22 22 25 23 21 18 18 16 16 14 14 14 9 8 7 6 11 12 12 14 7 24 10 20 26 22 18 22 24 23 18
16 13 13 13 13 15 17 20 20 20 24 26 26 24 27 28 28 26 24 22 19 18 17 15 11 8 8 7 3 4 3 11 13 11 26 17 21 21 23 23 22 23 18
13 12 12 13 14 16 19 22 23 24 25 26 28 28 32 32 32 32 31 27 23 21 21 18 13 10 8 5 3 2 2 3 15 18 22 24 18 22 21 19 22 26 27
11 12 14 16 16 19 21 25 28 30 30 35 36 35 32 28 33 35 33 30 25 22 18 14 8 5 1 3 6 2 10 12 4 11 16 20 26 24 25 27 23 21 21
8 6 8 12 16 17 19 21 24 31 37 39 39 35 32 29 29 34 32 28 22 18 16 10 2 3 6 9 12 15 21 22 19 8 12 17 26 23 22 24 25 29 33
7 6 5 8 12 13 18 23 26 30 34 36 38 39 36 29 25 28 31 25 20 15 12 6 5 7 13 17 20 25 20 10 13 10 8 14 16 25 24 24 26 27 25

GFSSE_925_spd_015.txt.gz
Wind_Speed
8 8 7 10 8 10 9 12 11 9 10 12 11 14 16 18 16 15 15 14 13 13 12 9 7 6 6 11 8 11 11 10 7 3 2 0 2 2 5 5 6 8 8
12 11 10 9 9 11 11 11 10 9 8 10 10 10 12 13 14 13 12 12 12 11 8 8 6 5 6 8 11 10 9 11 11 10 6 5 4 5 6 8 6 7 9
13 11 11 10 11 11 12 10 9 10 8 7 7 8 8 10 10 10 9 12 11 5 2 2 4 7 7 9 11 11 12 9 5 5 8 7 7 8 7 11 7 9 10
12 11 10 10 8 9 11 8 9 9 7 6 6 6 6 7 6 6 7 9 3 5 4 4 6 5 8 13 11 10 9 7 10 8 5 6 8 7 8 12 13 13 12
11 10 10 9 9 9 9 7 7 6 5 4 5 6 5 6 5 5 5 5 8 8 6 2 4 7 10 12 10 9 10 8 9 7 5 7 8 8 9 13 13 14 15
11 11 10 9 10 9 6 6 5 5 4 2 4 5 4 5 7 7 8 6 6 3 3 3 4 5 5 8 11 9 12 13 9 9 5 9 9 9 16 19 17 17 17
14 13 12 10 8 7 5 5 4 4 3 3 2 3 5 5 4 3 3 1 1 2 3 6 8 8 7 8 10 13 15 11 9 9 8 14 13 9 7 15 16 18 19
15 14 12 10 8 6 3 2 1 2 2 1 2 2 2 3 3 3 1 0 0 2 2 3 6 8 10 12 12 11 10 7 8 10 8 13 12 11 7 15 17 19 19
12 11 11 10 7 5 3 2 3 3 4 3 2 2 3 3 3 2 1 2 1 2 2 2 2 2 3 6 5 5 6 6 9 11 12 13 13 15 15 15 21 19 20
13 10 10 9 8 6 6 4 2 4 4 4 3 3 2 1 1 2 2 2 2 1 1 2 2 1 2 4 6 7 8 7 8 9 10 12 15 14 16 16 22 19 19
14 12 12 10 8 5 5 4 4 3 2 2 3 2 1 1 2 2 2 2 2 2 2 2 2 4 5 6 7 10 11 10 9 9 10 11 11 11 10 8 16 18 18
17 16 13 10 9 9 7 8 6 7 5 4 2 4 3 2 0 1 2 1 2 3 4 5 5 6 7 8 9 8 10 13 13 13 12 10 10 7 9 11 14 16 17
19 15 12 10 10 10 11 12 11 10 8 7 6 6 7 7 6 6 7 7 6 6 7 7 7 5 6 8 10 13 13 14 16 17 18 17 18 13 11 9 12 15 18
22 17 14 11 10 8 7 12 13 11 11 10 8 8 9 9 10 10 10 9 8 6 5 4 5 6 6 7 10 11 10 12 12 13 15 16 17 17 16 15 13 13 15
23 19 14 11 11 8 7 10 13 12 13 12 11 10 11 11 11 9 9 9 9 8 6 5 6 7 7 7 7 10 10 9 10 11 14 16 17 17 15 18 19 18 18
25 22 17 12 9 10 10 9 10 11 12 13 12 11 11 11 13 12 11 10 9 7 7 7 6 5 4 5 5 5 6 7 8 10 13 15 17 18 17 15 18 22 21
28 23 18 14 10 10 11 11 11 11 13 13 13 13 12 12 13 13 13 12 11 8 8 7 6 5 4 3 4 5 5 5 8 10 12 14 15 17 17 16 17 17 20
27 24 18 14 11 11 10 9 10 11 13 14 14 14 14 14 14 15 14 14 13 11 11 9 6 5 5 5 6 6 7 8 8 10 11 12 14 12 13 16 16 15 19
23 22 18 15 13 12 11 11 12 13 14 15 17 18 17 16 15 16 17 16 14 14 14 12 9 8 7 7 8 8 10 11 12 14 8 19 13 15 16 13 18 18 18
19 19 16 14 14 14 13 13 14 15 17 17 19 22 21 20 20 19 19 19 19 18 17 16 15 12 10 9 9 11 12 11 15 7 17 10 19 24 20 15 19 20 20
17 18 17 16 15 17 17 16 16 20 20 22 22 23 24 25 25 24 24 23 24 24 23 21 19 16 15 12 9 9 14 15 6 13 9 22 17 20 21 19 22 17 17
18 17 16 17 17 17 19 17 15 18 20 24 26 27 29 30 30 32 31 31 30 30 27 26 25 21 17 14 6 2 3 3 9 7 17 11 21 19 16 25 21 23 25
15 16 17 17 17 17 19 19 19 21 23 28 30 32 34 34 35 37 39 38 36 35 35 33 30 26 21 16 12 6 1 4 4 8 14 14 14 20 25 22 25 28 24
13 14 13 15 17 18 18 21 23 26 27 33 35 37 38 38 37 41 44 45 43 38 35 33 29 25 18 13 7 7 3 2 1 4 5 11 17 17 23 24 23 26 26
9 8 9 12 13 13 13 16 20 24 29 34 36 38 41 42 38 39 41 46 44 35 28 23 18 16 12 9 2 1 6 5 8 6 6 9 20 19 20 23 23 25 25
4 6 8 7 6 8 14 21 26 29 32 34 36 36 38 35 32 32 36 36 31 21 18 14 10 8 4 3 2 8 11 6 6 5 3 9 14 18 22 21 21 23 26

GFSSE_925_spd_018.txt.gz
Wind_Speed
7 8 5 4 5 7 10 10 13 13 15 15 13 12 13 14 13 9 10 9 9 8 5 4 3 2 3 3 5 7 5 6 4 6 6 5 7 8 8 6 5 5 7
7 7 5 4 6 9 9 10 10 13 13 13 12 12 12 11 11 8 9 8 9 6 4 2 2 3 3 4 5 5 6 5 4 4 4 5 3 6 8 7 5 5 6
8 8 7 7 8 9 11 11 10 9 12 10 9 8 9 9 8 7 9 9 9 4 2 1 3 6 7 7 7 6 6 3 3 1 2 1 5 4 5 7 7 7 7
8 7 8 8 8 9 10 11 11 9 8 8 7 6 6 6 7 7 8 9 7 4 3 5 6 5 6 8 7 5 3 2 2 3 2 2 4 5 5 6 7 7 8
9 9 8 8 8 9 8 8 7 7 5 5 4 6 7 7 6 6 8 7 7 9 7 4 3 6 7 7 6 5 3 5 4 6 6 5 3 3 5 6 8 9 10
11 10 9 9 9 10 9 8 6 6 6 4 4 4 4 4 3 5 5 5 3 3 3 3 3 5 6 7 8 10 6 7 7 9 7 7 6 4 7 11 13 12 10
15 13 11 10 9 8 6 6 5 4 5 3 3 2 2 2 2 3 4 3 1 2 3 4 6 6 6 8 8 8 10 8 6 7 7 7 6 7 8 10 11 13 12
16 15 12 10 8 6 6 6 4 5 3 4 4 3 3 2 1 1 1 1 1 2 2 3 4 5 5 7 10 8 8 7 6 7 6 7 8 10 9 6 10 12 14
14 12 10 8 6 4 3 3 4 4 4 4 4 4 3 3 3 3 3 3 3 2 2 2 2 3 3 4 4 5 7 6 7 8 9 9 11 12 12 11 12 15 15
12 11 8 6 3 2 1 3 3 4 4 3 3 2 1 0 1 1 2 2 2 2 2 3 3 3 4 4 5 6 6 6 7 9 10 10 9 11 11 14 15 15 15
11 9 9 7 5 3 1 0 1 1 1 3 3 2 2 1 0 0 2 2 1 1 1 2 3 4 5 6 6 7 6 6 6 7 9 10 11 12 11 8 6 9 12
14 12 10 10 7 6 5 4 4 3 3 3 4 4 4 4 3 3 2 3 5 6 6 6 7 9 10 10 9 8 9 9 8 8 8 9 9 10 9 8 7 9 10
18 15 12 10 9 10 10 9 9 8 8 7 6 6 7 8 7 7 8 8 8 8 8 8 8 7 6 5 6 7 8 8 8 9 8 9 9 8 10 9 8 8 10
20 17 13 10 9 9 9 12 13 12 11 10 9 9 10 10 10 11 12 11 10 10 9 7 7 7 8 8 8 7 7 8 8 9 9 10 10 10 9 10 11 11 12
22 19 15 12 9 8 10 10 12 13 12 12 12 11 10 11 12 13 12 12 12 11 9 8 8 8 8 7 6 6 6 5 5 7 9 10 11 10 10 10 10 12 13
24 22 17 14 12 10 8 9 10 12 12 13 14 13 13 13 14 14 14 14 13 12 11 11 9 8 7 6 5 6 6 4 5 7 10 12 14 13 10 9 10 12 12
29 23 20 15 12 9 8 9 10 10 11 13 14 14 15 15 15 15 15 15 15 14 13 11 10 9 8 6 5 4 5 6 7 6 7 10 12 11 13 12 12 12 12
29 24 18 14 11 10 9 9 11 12 13 14 15 16 16 16 16 16 16 17 16 17 16 14 12 11 9 8 6 5 5 5 4 5 5 7 8 10 12 13 13 14 15
22 19 18 16 13 11 10 11 12 14 16 15 16 17 19 19 19 19 19 18 18 20 20 18 17 15 13 11 10 8 7 6 6 6 2 5 5 13 12 12 13 15 15
18 18 18 16 14 12 12 13 15 17 19 18 18 19 20 22 23 24 24 23 22 23 23 22 22 20 18 15 13 13 13 11 11 7 5 3 6 6 12 10 13 17 15
16 16 19 16 15 14 16 16 16 20 20 20 19 20 23 26 27 28 29 29 27 28 29 28 25 24 23 20 14 15 17 16 16 15 10 6 3 8 5 8 16 20 18
16 18 17 17 16 16 18 18 15 16 19 20 23 24 26 28 32 33 34 35 35 34 34 33 31 30 27 23 11 4 2 5 12 19 15 8 7 3 4 12 13 17 21
15 16 15 15 15 15 16 19 20 22 25 28 30 31 33 33 33 37 41 43 44 42 42 41 39 37 30 27 26 8 2 5 0 8 11 9 5 7 9 9 17 14 19
7 9 11 11 12 11 9 11 13 17 22 27 29 31 32 33 36 37 38 40 47 47 44 44 43 39 35 25 17 20 8 4 3 2 4 5 13 5 18 18 17 17 15
6 8 8 8 10 12 17 20 23 24 26 29 31 32 32 28 26 25 26 29 36 40 39 36 32 28 26 16 7 5 5 3 5 4 3 3 15 11 11 16 19 14 13
14 15 16 17 18 21 25 26 27 27 29 31 33 32 31 30 29 27 24 22 24 23 20 18 15 14 12 9 8 2 3 3 3 4 2 3 10 15 16 17 13 17 18

GFSSE_925_spd_021.txt.gz
Wind_Speed
5 6 6 5 6 7 7 8 9 11 13 14 15 15 12 12 11 10 7 6 4 4 3 2 2 2 2 1 1 2 1 1 2 3 3 3 4 3 3 4 8 10 12
8 7 6 7 7 8 7 7 10 10 12 12 13 13 14 11 10 8 7 7 8 4 1 2 1 3 3 3 2 0 1 3 3 1 3 1 2 2 1 1 4 7 10
9 9 8 7 7 9 9 8 8 8 9 10 11 11 10 10 10 9 8 7 6 4 2 2 3 4 4 4 4 1 1 0 0 1 1 2 1 1 2 3 1 4 8
10 10 9 8 8 8 9 9 8 9 8 7 8 9 8 7 6 7 7 9 7 1 4 6 5 4 3 2 1 2 3 3 3 3 3 2 2 2 3 4 4 4 5
11 12 11 9 8 7 7 7 6 8 7 6 5 5 6 6 7 7 8 9 6 9 8 4 3 3 2 2 3 3 1 3 5 6 5 4 4 5 5 6 6 8 7
12 12 12 11 9 8 8 7 6 7 7 6 5 4 2 2 3 4 6 5 4 5 3 1 1 2 2 1 2 3 4 4 5 6 7 7 6 6 8 7 9 10 10
13 13 12 11 9 8 8 7 7 7 6 5 4 4 2 2 3 2 2 1 2 2 2 3 4 3 4 3 2 3 5 6 4 4 4 5 8 8 11 10 10 11 11
13 13 13 11 8 7 7 6 6 6 6 5 4 3 3 2 2 1 1 1 1 1 2 3 3 3 2 3 4 3 2 2 2 0 2 2 4 7 10 8 6 8 11
13 13 12 10 7 5 5 5 5 4 4 4 2 2 2 2 2 2 2 2 2 2 2 2 3 3 4 4 3 3 3 2 2 2 2 3 5 5 9 9 9 10 13
12 11 9 8 5 3 3 3 4 3 3 3 2 1 1 2 2 2 3 3 3 4 4 3 3 3 3 3 2 2 2 3 3 3 3 3 4 7 7 6 7 11 13
12 11 9 8 6 3 2 2 2 2 1 2 2 2 1 1 2 2 2 2 2 3 3 3 3 2 3 4 5 5 4 4 5 5 5 6 5 6 7 6 6 3 6
12 12 10 8 6 5 3 3 3 3 2 2 3 3 2 3 4 4 3 4 6 6 7 8 8 8 7 6 6 6 5 6 5 5 4 7 6 6 6 6 4 3 6
12 13 11 9 7 7 6 7 7 6 5 5 5 4 5 6 7 8 8 8 9 10 9 9 9 8 7 6 6 5 5 5 4 3 4 6 7 6 7 7 6 4 4
16 15 13 11 9 7 7 8 9 10 9 8 8 8 8 9 9 10 11 11 11 11 10 9 8 8 8 8 8 7 7 5 2 1 2 4 5 5 5 6 7 6 7
16 16 14 11 9 7 5 6 9 11 10 10 11 11 11 10 11 12 13 13 13 13 12 10 10 10 8 7 6 4 3 3 2 1 1 3 2 1 2 3 5 7 7
19 18 16 13 9 7 5 6 7 9 10 11 12 13 13 13 13 15 15 15 16 15 14 13 12 11 10 8 7 6 5 4 3 1 1 4 6 6 4 5 4 4 6
22 20 19 14 11 9 8 7 7 7 8 10 12 12 14 15 16 16 16 17 17 17 17 16 15 13 12 11 9 8 6 6 5 4 3 1 3 5 5 3 5 6 6
20 22 19 17 14 12 10 8 9 9 9 11 13 14 16 16 17 17 18 19 18 18 18 18 17 15 15 13 11 10 9 8 7 6 6 5 4 2 2 1 1 4 6
19 19 21 19 15 13 11 10 10 10 11 11 14 16 18 18 19 20 22 23 21 21 22 21 20 20 15 15 15 14 14 12 11 10 9 9 7 4 2 2 3 3 5
14 15 19 18 15 14 13 12 12 12 12 12 14 17 20 22 23 23 26 27 26 25 25 26 25 22 21 18 15 15 15 16 16 15 13 12 9 6 3 2 2 5 7
12 15 16 16 15 13 12 11 11 11 13 14 15 19 20 23 26 27 29 30 30 30 32 31 28 24 21 21 11 16 18 19 19 17 15 14 13 10 6 3 2 4 7
6 9 9 6 7 8 10 11 11 17 20 24 24 25 25 24 25 24 27 29 30 27 32 33 30 23 21 21 17 15 7 11 14 17 17 16 13 9 8 7 6 6 5
11 8 6 7 8 9 10 11 12 12 13 14 19 25 27 28 29 29 29 27 27 27 28 31 32 29 28 22 26 17 6 10 8 9 17 16 12 11 8 6 9 7 6
14 12 11 14 16 16 16 15 16 12 14 15 18 20 26 26 25 25 25 25 25 24 25 27 28 30 28 28 17 25 19 12 9 10 9 14 12 10 8 8 7 9 9
20 20 18 15 15 18 20 19 15 12 12 15 19 23 25 27 28 27 26 25 25 23 22 22 23 22 25 27 26 17 18 14 9 12 11 9 9 10 9 10 11 11 8
16 17 16 17 16 18 19 17 18 21 23 24 30 30 31 30 29 28 24 21 18 16 14 8 6 6 8 9 9 6 5 9 12 7 5 7 11 15 10 13 11 10 12

GFSSE_925_spd_024.txt.gz
Wind_Speed
8 6 7 9 8 6 6 8 8 8 8 10 10 12 12 12 11 8 8 6 5 5 2 0 2 2 2 1 1 0 1 2 2 2 3 3 4 4 4 5 5 3 6
10 8 9 10 9 8 8 8 8 9 10 10 10 11 11 11 9 6 6 5 5 4 3 1 2 3 3 2 0 1 1 1 1 1 2 4 2 2 3 3 2 4 6
11 9 8 10 11 10 8 7 8 8 8 9 9 10 10 9 8 7 6 5 4 4 3 3 3 5 5 4 1 2 2 1 1 1 2 1 1 1 1 1 1 2 5
10 9 9 10 11 11 9 9 8 8 7 7 6 6 6 6 5 5 5 5 3 1 2 5 6 5 3 4 4 4 2 3 2 2 4 4 2 4 4 2 3 4 6
10 9 8 9 10 10 9 8 7 7 6 6 5 5 5 3 2 2 3 4 5 7 7 5 3 3 4 4 5 5 4 4 3 4 6 5 6 6 3 4 2 6 6
10 9 11 10 10 9 8 8 7 6 6 5 5 4 4 3 3 4 6 4 3 5 4 3 4 3 2 2 4 5 6 6 4 6 6 7 6 7 6 6 8 8 10
11 11 11 11 10 10 8 7 7 7 6 6 5 4 3 2 1 1 2 2 3 4 4 5 6 6 5 4 4 4 5 6 6 8 7 6 6 9 9 9 9 12 14
11 10 10 10 9 8 6 6 5 4 4 5 5 4 3 2 2 1 1 0 1 2 2 3 2 3 2 2 2 2 3 3 4 6 5 5 5 5 8 10 10 8 12
11 10 10 8 7 7 5 4 3 3 4 5 4 4 3 3 2 2 1 1 1 2 1 1 1 1 1 1 1 1 1 1 2 3 4 5 6 4 6 7 11 11 11
10 8 7 6 4 4 2 2 2 4 4 5 4 4 3 4 4 3 4 2 2 2 2 2 2 3 3 3 3 3 3 4 4 4 4 4 5 4 6 5 6 9 14
8 7 6 4 3 2 1 0 3 3 3 5 5 3 4 1 2 3 1 1 1 2 2 3 4 4 5 7 7 6 6 6 6 6 6 8 5 5 5 6 6 4 8
11 9 7 7 5 2 1 2 1 1 0 1 2 2 2 1 2 1 3 4 6 6 6 7 8 8 5 5 6 7 5 6 7 7 7 10 6 6 5 5 4 3 5
10 9 8 6 4 2 3 2 3 3 2 2 2 2 3 4 5 5 5 7 7 9 6 7 7 5 6 6 6 7 7 8 8 7 7 7 6 6 6 5 4 4 4
11 10 8 6 4 3 2 2 3 4 4 4 5 5 6 7 7 8 8 9 9 9 10 9 8 7 7 7 8 8 8 8 8 8 7 8 6 6 6 4 4 4 5
11 10 9 8 5 4 3 2 3 4 4 5 6 6 6 8 8 9 9 10 10 10 11 11 10 10 10 9 8 8 8 8 7 7 6 8 6 6 5 4 4 2 2
12 11 9 8 7 5 4 3 2 2 3 4 6 6 7 7 9 10 11 11 11 10 11 11 12 12 11 10 10 9 9 9 8 8 7 5 5 5 6 6 5 5 3
10 9 10 10 9 7 5 3 3 3 3 4 5 6 7 8 9 11 12 12 12 12 13 12 13 13 13 12 12 12 11 11 11 11 10 9 7 6 7 7 6 6 5
11 11 11 11 10 8 6 4 4 4 5 5 6 6 8 9 10 12 14 14 13 14 14 14 15 15 15 15 14 14 14 13 13 13 13 13 12 10 8 9 7 6 6
13 13 12 13 11 8 5 5 5 6 5 5 6 7 8 10 11 13 16 17 16 17 17 17 18 17 18 17 17 17 16 16 15 15 15 15 14 13 12 12 10 9 8
9 10 10 9 7 5 5 5 6 6 7 7 8 8 10 11 11 13 16 20 19 20 21 21 22 21 21 21 21 20 20 20 19 19 18 17 16 15 14 13 10 8 9
3 2 1 3 1 2 4 5 6 6 8 9 10 12 11 11 12 13 16 19 20 22 24 25 25 25 25 24 22 23 24 23 23 23 22 20 20 19 17 16 13 11 8
10 8 6 4 4 3 3 3 5 8 9 10 8 12 13 15 17 18 19 20 21 23 24 25 25 27 28 26 26 24 14 22 26 25 26 24 24 22 20 19 15 12 10
14 11 9 9 10 10 8 6 6 6 9 11 17 19 20 21 19 19 19 20 21 21 23 24 24 26 28 28 29 20 10 15 17 22 22 23 24 23 21 20 17 13 11
16 15 14 12 10 10 9 7 9 9 12 13 15 18 21 21 21 21 21 21 22 21 23 24 24 24 25 28 27 29 33 31 16 12 18 21 24 24 22 19 18 15 13
13 12 10 9 9 10 10 8 8 11 14 14 13 16 20 20 21 22 21 20 20 20 20 20 21 22 23 25 25 25 24 26 29 14 14 11 20 22 22 19 18 17 16
10 10 10 11 10 10 10 11 11 8 11 14 17 20 22 25 25 24 22 20 16 14 12 11 9 8 11 13 14 14 11 8 10 11 11 16 10 18 21 19 19 19 19

GFSSE_925_spd_027.txt.gz
Wind_Speed
15 10 10 8 8 8 9 8 8 9 9 7 7 8 8 8 6 5 6 5 4 2 3 3 5 5 6 4 3 2 2 2 3 3 3 3 3 3 3 3 4 1 7
11 11 11 10 9 9 8 8 8 9 10 9 9 7 7 6 6 4 4 4 4 3 4 4 5 6 5 4 3 1 1 1 2 2 2 3 1 1 1 2 4 5 7
14 12 10 11 11 10 9 8 8 8 9 9 8 7 6 5 4 4 3 4 4 4 4 6 6 5 4 4 3 3 3 3 3 4 2 6 7 2 3 1 1 1 3
14 13 12 13 11 10 9 8 8 7 7 7 7 6 5 4 3 2 1 1 1 1 4 5 6 7 6 6 5 4 5 5 6 6 7 9 5 2 3 2 2 1 2
13 12 12 12 11 10 10 8 7 7 6 6 6 5 4 3 1 2 3 4 5 7 6 5 6 5 5 5 6 6 6 6 7 8 11 7 8 1 2 3 3 3 3
13 12 13 11 10 10 9 7 6 6 6 5 4 3 3 2 3 4 5 4 4 4 4 3 5 5 4 5 6 7 8 9 10 12 12 8 9 8 6 6 7 7 6
14 13 12 12 10 9 9 7 7 7 7 5 4 4 3 2 1 2 3 4 4 5 5 5 6 6 6 6 7 7 8 9 9 12 9 11 9 8 9 9 9 10 11
15 13 11 10 9 8 7 7 7 6 6 5 5 5 4 4 4 4 4 4 4 4 4 5 4 4 4 4 5 6 7 7 8 11 10 7 5 9 6 9 12 12 10
13 12 10 8 7 7 6 6 6 7 5 5 5 5 5 5 5 4 4 3 3 3 3 3 4 4 4 4 4 4 5 5 7 8 7 1 2 4 6 5 7 10 12
11 10 10 8 6 5 4 5 5 6 5 6 5 5 5 5 6 7 7 4 3 3 3 3 3 4 4 5 6 6 6 6 5 8 8 4 7 7 7 6 5 7 10
10 9 7 7 5 3 3 3 4 5 6 6 5 7 4 1 3 2 3 4 4 5 6 6 7 8 8 9 7 8 8 8 7 9 6 6 9 8 6 7 8 8 7
11 10 9 6 4 2 1 1 2 1 2 2 2 3 3 4 4 6 4 8 8 7 8 7 9 10 7 8 9 9 7 8 9 8 8 10 12 10 8 7 6 6 8
12 11 8 5 3 1 2 1 1 1 1 1 1 3 4 6 4 8 6 8 5 7 8 6 10 9 8 9 9 10 11 11 11 11 7 12 11 8 8 8 7 7 7
13 10 8 6 4 2 1 2 2 2 2 3 1 4 5 6 7 8 9 10 11 10 10 11 11 10 11 11 12 12 11 12 12 12 10 13 12 10 9 7 7 8 9
10 12 10 8 5 2 1 2 2 2 2 3 3 3 4 5 6 7 9 10 11 12 12 12 13 14 13 14 14 13 13 13 13 13 11 12 13 10 9 8 7 6 7
11 10 9 7 6 4 2 1 2 2 2 2 3 2 3 4 5 7 9 10 11 12 13 13 15 16 16 16 16 15 15 15 14 13 13 12 12 11 9 10 9 8 7
12 11 9 8 8 6 4 3 3 2 2 3 3 3 3 4 5 7 9 11 12 13 14 15 16 16 17 17 18 17 16 16 16 15 15 14 11 12 13 11 10 8 8
10 10 7 7 7 8 5 3 3 3 4 4 4 3 4 5 7 9 11 12 13 15 16 17 18 20 21 21 20 19 19 18 18 17 18 17 16 14 14 16 13 11 10
7 8 8 8 8 8 5 5 4 5 5 5 4 6 6 8 9 11 13 16 16 17 18 20 21 21 23 23 24 24 22 22 21 21 21 21 20 18 17 18 16 16 14
4 5 6 7 5 5 5 5 6 6 7 6 8 8 8 11 10 11 14 16 17 19 21 22 23 25 25 26 29 28 26 24 24 24 24 24 24 22 22 17 18 19 18
4 1 4 2 4 3 4 5 6 7 7 9 9 8 9 9 12 15 15 17 20 22 22 23 24 25 26 26 27 26 28 29 29 28 26 26 26 25 25 23 20 19 19
11 9 8 6 6 4 3 4 3 5 6 7 5 9 11 11 14 17 16 18 19 21 21 22 23 25 26 26 26 26 14 22 28 34 32 30 30 28 27 26 25 23 18
14 12 11 9 8 8 6 4 5 6 7 12 12 17 16 15 17 16 18 18 20 22 23 23 23 24 25 27 26 23 12 14 15 26 27 31 28 28 29 27 29 26 24
12 10 9 7 6 6 8 6 7 10 13 16 18 17 17 17 18 19 20 19 20 21 24 24 24 23 23 25 24 27 29 26 14 15 29 21 27 25 23 28 27 27 23
9 8 7 7 6 7 8 9 10 12 14 15 15 16 18 16 18 20 21 21 21 22 22 21 22 22 21 23 24 20 19 18 18 6 9 16 18 21 21 24 26 22 23
7 7 7 8 9 9 10 10 11 12 13 15 16 18 17 20 21 22 23 22 21 20 18 17 13 11 11 13 13 11 9 6 9 4 4 9 9 13 25 20 17 20 17

GFSSE_925_spd_030.txt.gz
Wind_Speed
17 16 14 14 12 12 13 13 14 13 11 10 10 9 10 10 10 10 9 9 8 7 5 5 6 7 7 7 6 6 6 6 7 7 6 6 5 6 7 9 9 6 5
21 15 14 14 14 13 12 12 13 14 13 12 11 10 9 8 7 6 6 7 6 5 4 4 5 5 7 7 8 7 7 7 7 6 5 3 2 3 5 6 9 8 6
19 17 16 15 14 12 11 11 11 12 12 12 11 9 7 5 5 4 5 4 4 4 5 5 4 7 7 8 8 7 8 9 9 10 9 7 2 6 6 5 6 6 5
25 19 16 14 13 12 12 11 11 11 10 9 8 7 6 5 3 3 4 3 3 3 4 5 8 10 10 9 8 8 9 10 11 12 11 15 1 2 5 6 4 3 4
22 17 17 16 15 14 13 12 11 10 8 7 6 5 4 4 3 2 2 3 5 5 4 6 7 8 7 7 7 8 9 10 9 9 11 11 8 6 8 6 3 2 2
19 17 17 16 14 14 13 11 10 9 8 7 5 5 3 2 2 3 4 4 5 5 3 3 5 5 6 7 8 8 8 9 10 10 10 12 3 7 5 5 4 3 2
19 17 17 16 15 13 12 12 11 9 7 7 6 5 4 3 3 4 4 5 5 5 5 5 6 7 7 7 7 8 9 9 9 8 8 6 7 7 8 7 6 6 8
21 16 16 14 13 13 12 11 10 8 8 7 7 6 6 6 6 6 6 6 6 6 6 7 7 7 7 7 7 8 8 9 9 7 4 3 5 6 8 8 7 9 10
17 16 14 12 12 11 11 9 9 9 8 7 6 6 6 7 6 6 6 7 7 6 7 7 6 6 7 7 7 8 8 8 9 8 10 3 5 8 9 8 6 7 9
16 16 14 7 7 7 9 8 8 8 8 7 7 6 6 8 8 8 9 9 8 7 8 8 8 8 8 8 8 9 10 8 3 9 8 2 5 8 10 9 7 8 7
13 11 10 15 9 6 6 8 6 6 7 8 8 8 3 2 4 4 7 9 8 8 11 8 9 11 10 10 7 7 10 6 11 10 9 6 6 9 11 11 9 10 9
14 11 9 10 7 4 5 2 6 3 4 4 4 4 4 4 3 6 8 7 6 8 10 6 8 13 10 11 14 9 9 9 11 10 14 15 12 12 12 10 10 9 9
13 12 15 9 6 1 6 2 8 6 7 9 5 1 6 5 3 9 7 7 7 12 9 5 13 12 6 13 13 14 13 13 13 15 15 12 14 14 13 11 10 9 9
18 15 16 12 7 3 2 4 6 2 6 1 7 3 2 5 6 5 6 8 10 11 11 11 11 12 15 13 11 14 16 16 16 17 14 12 14 14 14 13 11 10 11
18 18 16 13 7 5 3 5 2 3 2 0 2 2 1 1 4 4 6 6 8 9 9 9 10 13 14 14 15 15 14 16 17 18 18 18 15 16 15 13 11 11 11
13 16 17 14 10 7 4 3 1 4 1 2 1 2 2 1 3 3 5 6 8 10 10 13 16 16 15 16 17 17 18 19 20 20 18 17 17 18 15 14 11 11 10
14 13 14 12 11 7 5 4 2 1 1 1 1 1 1 2 4 6 7 9 10 12 13 15 16 16 18 19 19 19 19 23 22 19 21 19 20 19 17 18 17 16 13
12 14 14 12 12 9 7 5 4 1 2 3 4 3 4 3 5 8 10 12 14 16 18 18 19 20 20 21 22 22 22 23 23 24 22 25 24 22 20 19 20 19 18
3 5 5 7 12 11 10 6 4 4 4 5 3 4 4 2 4 7 11 15 18 19 21 23 23 23 23 22 23 24 26 27 28 26 25 27 28 26 20 24 23 24 23
14 11 9 7 7 4 3 1 5 7 7 8 3 1 4 7 5 8 12 16 18 20 21 22 23 24 25 25 26 28 30 31 31 27 28 29 29 29 31 24 25 25 24
15 14 13 11 10 6 4 4 7 10 10 8 6 4 6 6 10 12 14 14 16 21 20 21 22 24 26 24 26 25 27 29 29 31 37 32 31 32 33 37 30 26 29
15 13 12 12 11 9 8 6 5 6 5 6 7 3 11 9 8 15 17 18 16 20 22 22 23 25 24 22 22 21 10 20 24 30 32 35 38 37 35 37 38 30 29
14 13 11 10 10 10 10 7 7 9 10 10 12 15 14 15 15 15 15 18 18 19 18 21 25 26 24 23 22 19 10 10 14 21 27 23 25 31 29 28 37 40 32
12 11 9 7 7 8 9 9 10 11 13 16 17 14 12 15 14 17 18 19 18 19 19 21 20 24 22 21 21 18 21 19 5 9 19 23 22 20 28 19 18 21 34
9 8 6 6 5 3 6 7 8 10 12 14 16 15 17 13 19 19 21 23 21 21 23 19 11 13 13 17 18 21 21 23 22 7 8 9 18 17 14 9 17 27 14
7 5 6 8 10 10 5 6 8 9 11 13 14 15 14 18 19 20 22 23 19 12 12 14 13 14 15 15 19 18 13 6 8 4 3 10 11 18 21 21 13 14 18

GFSSE_925_spd_033.txt.gz
Wind_Speed
18 19 17 16 16 15 16 16 16 14 13 14 13 13 14 13 13 13 13 12 11 11 10 10 9 8 8 8 6 5 5 5 5 5 4 4 6 7 10 9 10 8 8
22 20 18 17 16 16 17 18 17 16 15 14 13 12 11 11 12 12 11 10 10 11 10 9 7 7 8 8 7 6 5 5 5 5 6 7 5 6 7 7 9 8 6
23 21 20 18 17 17 17 17 17 16 15 13 12 11 10 9 9 9 8 7 7 8 7 7 7 8 8 7 6 6 6 5 6 7 8 7 3 2 4 4 5 5 7
23 22 20 18 18 17 16 16 15 14 14 13 11 10 10 9 8 8 7 7 7 7 6 7 9 9 9 9 8 9 7 8 8 7 8 5 6 4 5 4 4 3 5
24 21 20 19 19 17 17 15 14 13 12 11 10 9 8 7 7 7 6 6 5 4 4 6 7 8 8 8 8 8 9 8 8 7 9 3 1 5 1 5 5 2 3
24 22 20 20 18 17 15 14 13 12 11 10 9 7 7 6 6 6 7 7 7 7 5 5 6 6 7 8 9 9 9 9 8 7 9 3 2 3 1 2 3 6 6
23 21 20 19 18 16 15 13 12 11 10 9 8 7 7 7 7 8 8 8 7 7 6 6 7 8 8 9 9 9 9 9 9 9 9 4 2 1 2 4 4 5 6
24 21 20 17 16 15 14 13 12 11 11 11 10 10 9 10 9 9 8 9 8 7 7 7 7 8 8 9 10 11 10 10 9 8 3 2 3 2 3 5 6 6 8
21 20 17 16 15 14 13 13 13 13 12 11 10 10 12 11 11 11 10 10 8 7 7 7 8 8 9 9 9 11 12 11 10 10 4 4 2 3 5 8 7 5 7
19 17 17 14 13 12 14 12 13 12 13 13 12 12 11 10 8 8 8 7 7 8 8 7 9 11 10 9 7 9 11 10 9 12 10 6 6 7 8 10 8 7 7
22 19 16 14 11 11 13 12 11 12 12 12 11 9 8 4 4 7 6 3 5 6 7 6 8 11 9 9 11 11 12 12 11 13 12 14 11 10 13 14 12 9 9
23 22 17 16 10 8 8 6 8 10 10 10 8 4 6 3 1 5 5 4 5 7 6 3 8 9 6 7 12 13 9 11 12 13 17 19 16 14 14 15 14 12 11
21 22 19 14 9 5 6 5 8 10 10 9 9 5 7 0 3 1 2 3 6 7 6 7 8 9 9 12 15 13 13 16 18 15 16 13 14 15 14 16 16 14 12
25 26 20 14 11 6 6 9 9 11 11 11 10 9 7 3 5 3 4 5 6 8 9 10 8 8 10 13 16 16 16 17 16 15 19 20 15 16 15 16 17 16 14
27 28 22 16 11 8 8 5 6 7 10 8 8 7 3 6 1 2 2 3 5 6 9 6 9 13 16 17 17 17 18 19 20 20 18 21 23 21 20 18 18 16 14
31 30 25 18 16 12 9 6 5 7 5 6 8 7 4 5 2 2 2 3 6 9 10 12 15 17 18 18 20 19 20 21 24 24 21 22 20 20 18 19 18 17 14
29 29 27 23 23 20 15 8 6 10 7 5 7 5 3 4 5 4 4 5 8 10 14 16 19 19 21 23 24 24 24 24 26 27 25 22 24 24 24 21 21 20 18
26 29 29 27 20 14 12 13 8 8 6 6 6 6 6 6 4 4 4 8 11 15 18 19 20 25 26 26 27 26 26 27 29 31 31 29 26 27 28 26 24 23 23
20 20 15 19 10 9 11 8 5 5 5 6 6 7 9 8 5 5 9 12 13 17 19 20 20 21 22 25 27 27 28 30 30 29 29 32 31 32 31 29 26 26 25
28 23 24 21 17 10 9 5 0 3 2 4 4 5 2 2 6 7 8 11 14 17 20 20 22 23 24 27 30 30 30 29 30 30 31 32 33 35 37 34 33 29 29
25 23 19 23 18 15 13 9 7 9 6 6 6 3 5 3 2 7 12 13 15 16 19 22 21 22 26 27 28 25 24 24 26 27 26 29 35 35 38 40 40 38 35
23 21 19 15 13 15 13 11 9 10 8 8 11 13 12 10 11 11 12 14 15 15 16 16 20 24 24 18 16 19 6 15 19 19 21 22 25 22 24 33 39 42 42
21 19 17 13 11 9 10 8 5 6 9 14 16 15 14 12 11 13 14 16 17 18 18 20 22 17 14 13 13 9 4 4 17 16 24 24 23 22 20 17 18 30 38
15 15 11 7 5 7 8 7 8 7 8 12 14 15 13 11 14 16 17 18 20 20 19 15 9 11 13 13 11 14 15 9 5 8 8 23 18 23 26 25 20 15 14
10 9 7 10 7 4 6 6 6 4 6 8 10 11 11 14 15 18 20 24 21 13 10 13 15 14 13 11 11 10 13 17 10 5 9 10 22 23 29 27 25 23 15
10 8 5 8 13 16 15 14 11 10 10 9 11 9 11 13 15 16 16 13 13 16 19 18 14 13 14 14 17 20 10 6 7 5 4 11 14 13 25 18 18 15 13

GFSSE_925_spd_039.txt.gz
Wind_Speed
17 17 16 15 16 18 18 18 18 18 18 18 17 16 15 15 14 13 12 11 10 11 10 10 9 9 9 9 9 8 8 7 7 6 6 5 6 7 8 6 5 6 7
24 19 18 18 18 19 18 18 18 18 17 17 16 15 15 14 13 12 10 10 9 10 9 8 7 7 8 7 7 7 7 5 4 5 5 3 2 3 3 4 5 5 4
25 22 20 19 19 20 20 19 18 18 17 16 14 14 13 12 10 10 9 8 8 7 7 7 6 6 7 7 7 7 7 5 5 5 5 5 3 1 1 2 1 3 4
25 23 21 20 20 20 20 20 18 17 15 14 13 12 11 9 8 7 6 6 5 6 8 7 6 6 7 7 7 8 8 6 5 4 3 4 2 0 2 1 2 3 3
25 23 22 20 19 19 19 17 17 16 14 13 12 11 9 8 7 6 6 6 5 4 5 6 6 7 7 8 8 8 8 8 7 4 2 1 1 2 4 5 5 4 4
24 22 21 20 19 18 17 16 15 14 13 12 10 9 8 7 7 7 7 7 6 6 6 7 8 8 8 8 8 8 8 8 6 3 2 3 5 3 6 6 8 8 7
24 22 20 19 17 16 15 15 14 13 11 11 9 9 9 9 8 8 8 7 7 7 7 7 9 8 8 8 8 8 8 8 7 6 3 3 5 3 4 6 8 10 9
26 22 20 17 16 14 14 13 13 12 12 11 10 10 10 9 10 9 8 8 8 7 7 9 10 9 9 9 9 10 11 11 9 7 5 1 3 2 5 5 7 9 12
23 22 19 16 14 13 13 13 13 12 12 12 12 10 11 12 10 9 9 9 8 8 8 10 11 10 10 10 11 12 12 11 10 9 6 5 4 5 6 6 8 10 13
22 20 19 17 14 14 14 12 13 12 12 12 12 11 10 8 7 6 6 5 5 6 6 7 8 8 9 9 11 11 13 12 10 9 9 9 7 9 9 11 12 13 13
21 20 19 17 15 14 14 13 13 13 12 11 11 10 8 6 4 3 2 1 2 2 2 3 4 6 6 8 10 11 11 13 12 12 12 12 11 10 11 12 13 13 15
23 23 21 19 17 16 15 14 14 14 13 12 10 8 5 4 3 1 1 2 4 4 2 3 4 5 7 9 10 12 12 12 12 12 12 13 14 12 10 12 14 13 14
28 25 24 20 17 16 16 16 14 13 12 11 9 8 7 5 5 7 5 5 6 6 6 6 7 8 8 9 12 14 14 13 15 16 15 15 15 15 15 14 15 15 15
29 29 26 22 20 18 16 17 16 15 14 11 10 8 8 7 6 6 6 5 6 7 8 9 8 7 10 13 14 15 16 16 17 17 18 18 18 18 18 17 16 17 17
31 31 28 25 22 20 17 15 16 15 15 13 12 11 10 7 7 6 6 6 6 7 8 7 9 11 14 15 15 16 17 19 20 21 22 21 22 23 22 22 21 19 18
33 32 30 28 23 20 19 14 13 13 15 15 15 13 12 9 10 9 7 6 7 8 8 10 12 14 16 17 18 18 19 19 18 18 18 19 20 23 27 28 26 24 23
34 35 32 29 24 17 12 8 7 8 10 9 10 12 13 12 10 9 8 7 6 8 10 11 12 14 17 18 19 21 22 23 23 23 22 20 20 20 21 21 28 29 29
28 29 27 23 15 12 6 4 1 5 8 7 10 12 12 10 8 6 5 4 5 8 11 13 15 17 18 19 22 23 24 24 22 22 20 19 18 18 18 18 20 23 29
23 20 20 16 13 10 2 2 5 5 3 2 3 6 4 3 2 2 2 2 6 8 11 12 13 17 20 23 25 26 26 25 22 20 16 13 14 14 13 13 16 19 20
20 17 17 16 10 5 4 12 15 15 16 13 12 8 4 3 3 3 6 7 8 10 12 14 15 18 20 20 23 23 23 22 19 7 14 19 17 16 16 15 14 16 17
24 18 13 7 9 7 9 12 13 17 15 15 13 11 8 7 7 9 9 10 12 14 16 19 22 23 22 19 12 20 20 11 14 16 19 20 21 20 21 22 23 23 21
25 24 21 20 18 15 15 15 12 12 11 8 7 8 7 8 8 8 9 11 14 18 21 20 18 15 11 14 10 14 4 12 6 21 23 22 20 22 26 27 26 26 22
23 20 18 17 16 15 12 10 9 7 5 3 2 2 1 4 5 7 9 12 16 18 15 13 14 15 15 17 12 4 4 3 11 6 26 8 22 24 24 24 21 19 17
18 16 17 15 13 10 6 4 2 1 2 0 2 2 1 3 8 10 13 14 16 14 14 15 17 16 11 11 12 5 9 10 2 4 3 15 18 24 21 22 19 16 18
16 17 16 13 11 10 7 4 4 4 2 2 1 2 4 6 8 9 9 9 9 10 13 14 8 6 8 11 10 10 10 11 9 3 6 6 14 15 16 17 17 16 17
12 14 14 12 10 7 7 7 6 5 2 1 5 5 7 8 6 5 6 9 12 11 10 9 9 9 10 9 10 9 5 5 7 8 4 6 10 12 16 13 15 16 15

GFSSE_925_spd_042.txt.gz
Wind_Speed
13 16 16 17 20 20 20 21 21 21 21 20 19 18 17 16 15 14 13 12 11 11 10 9 9 9 9 10 9 8 8 7 6 7 7 6 7 8 9 8 9 8 7
20 17 16 18 21 21 21 21 20 20 20 19 17 16 15 14 13 11 11 12 10 9 7 7 7 8 9 9 9 8 7 7 7 7 7 4 3 5 6 6 7 7 5
23 20 18 20 21 21 20 20 20 19 18 16 15 14 13 12 10 10 10 9 8 9 7 7 7 8 9 8 8 7 6 7 7 7 7 7 3 5 5 7 8 8 6
22 20 20 21 21 21 20 20 19 17 16 15 14 13 11 10 8 8 7 7 6 7 7 7 7 8 9 8 8 7 6 7 6 6 6 5 4 4 6 6 6 7 7
21 20 19 20 21 20 19 18 17 16 15 14 12 11 10 8 8 8 8 7 7 7 9 9 9 9 10 9 9 9 9 8 6 4 4 3 4 4 7 8 5 6 8
21 20 19 19 19 18 17 16 15 14 13 12 11 10 9 8 8 9 9 8 9 9 10 10 10 10 10 9 9 10 10 10 9 5 3 3 3 3 6 8 8 7 7
20 19 18 18 18 17 16 15 14 13 12 10 9 9 10 10 10 10 10 10 9 9 10 10 10 10 10 10 11 12 13 11 9 7 5 3 3 3 7 8 9 10 10
21 19 18 17 16 15 14 13 12 11 10 10 10 11 10 11 11 10 10 10 10 9 11 11 11 11 12 12 12 13 13 13 10 10 8 5 3 5 8 9 10 12 14
20 20 18 16 14 13 12 12 11 11 12 11 12 11 12 11 11 11 10 10 11 10 10 11 12 12 12 12 12 13 13 12 11 10 10 7 6 6 7 10 13 14 14
20 18 17 15 13 13 13 12 12 12 11 11 11 12 11 10 9 9 7 7 7 7 6 8 8 9 10 10 11 12 13 13 12 11 11 11 9 9 9 10 12 14 14
19 18 16 15 14 13 14 14 13 12 11 12 11 10 8 7 7 5 4 3 4 3 3 3 5 7 8 9 10 11 12 13 13 13 13 12 13 13 13 13 14 13 14
21 21 19 17 16 15 15 14 13 12 13 13 11 9 7 5 3 2 1 1 1 2 2 5 5 6 7 8 10 11 12 13 13 14 14 14 14 14 13 13 14 15 16
25 23 21 18 16 16 15 14 15 13 13 12 10 9 7 4 3 4 3 4 4 4 4 5 6 6 5 8 11 12 12 12 14 15 16 16 17 17 16 14 14 16 18
25 23 21 20 18 16 14 14 13 13 11 11 9 7 7 6 6 5 6 6 4 4 4 5 4 6 7 9 11 11 12 13 15 17 18 18 19 19 20 19 17 17 18
24 24 22 19 18 15 14 13 13 12 12 10 9 7 8 7 5 5 4 3 2 4 5 5 7 8 9 10 11 13 13 14 14 15 16 16 16 17 18 19 21 21 20
26 25 21 18 16 12 12 8 11 12 12 12 12 11 12 9 7 6 3 2 2 4 5 6 7 8 10 13 16 17 18 18 18 18 18 18 18 17 17 18 17 19 21
24 22 21 18 15 7 2 2 5 8 9 10 12 12 10 9 7 5 3 2 2 2 4 6 8 10 13 15 17 19 19 20 19 18 16 15 15 16 16 17 17 20 21
23 20 17 16 12 10 10 9 7 8 8 6 3 3 4 4 2 2 2 2 4 7 8 10 13 14 16 17 19 20 22 22 20 17 16 11 10 9 8 10 13 15 18
19 18 15 13 13 10 10 10 6 0 3 6 4 4 4 2 2 2 4 6 8 8 12 13 14 16 19 20 20 21 21 22 18 15 7 10 11 12 12 13 15 15 15
19 21 21 19 14 4 3 10 11 14 14 13 12 9 7 7 7 7 7 8 8 11 14 17 18 18 18 14 19 11 21 18 11 2 13 15 14 16 17 19 21 21 20
23 21 18 14 10 8 14 14 13 13 12 11 9 7 7 8 9 9 9 10 13 17 18 18 18 17 17 17 9 16 13 1 8 8 18 13 17 17 20 23 22 22 22
23 22 18 16 13 12 12 14 10 9 8 8 8 9 8 6 6 7 8 10 13 15 16 17 17 17 15 18 10 11 3 6 1 17 12 15 12 19 23 19 16 15 15
24 24 22 20 17 13 11 10 9 6 3 2 1 1 1 3 5 7 9 10 12 14 14 15 17 17 12 11 10 3 3 2 8 4 16 9 16 17 15 14 13 12 14
18 17 17 14 11 9 7 4 3 2 2 3 3 3 1 4 6 6 7 8 11 13 15 17 15 13 10 9 11 3 8 7 2 4 3 19 12 21 19 15 11 11 11
13 13 13 12 8 7 5 4 2 2 2 2 0 2 4 6 6 6 6 7 10 13 12 10 9 9 9 10 8 8 9 12 8 5 7 9 19 17 17 19 14 11 12
10 12 13 11 8 7 5 3 2 3 2 2 4 5 6 7 7 6 7 9 13 11 8 6 8 9 9 9 8 7 7 5 8 7 4 10 14 15 16 16 14 14 14

GFSSE_925_spd_045.txt.gz
Wind_Speed
13 17 19 22 22 23 24 24 24 24 24 23 21 20 18 17 15 13 11 10 11 11 9 8 7 7 7 7 8 7 7 8 8 9 8 7 9 10 10 10 10 9 7
20 18 18 21 22 23 23 23 23 22 21 20 19 18 17 16 14 12 11 10 9 9 8 7 7 7 7 7 7 7 8 8 9 8 8 4 5 9 10 10 10 9 8
20 16 16 21 22 22 22 22 21 20 19 18 17 16 14 12 11 10 9 8 7 8 8 8 7 7 7 7 8 8 8 9 9 8 8 7 7 9 10 10 10 10 8
20 17 16 20 21 21 21 20 20 18 17 16 15 13 11 10 9 8 8 8 7 8 8 9 9 9 10 10 10 11 11 10 8 7 7 6 6 7 8 9 9 9 10
19 17 17 20 20 20 20 19 18 16 15 14 12 11 10 9 9 9 9 9 8 9 9 10 10 11 11 11 12 12 12 11 10 8 7 6 5 6 8 8 7 8 10
19 17 18 19 19 19 19 17 16 15 13 12 11 10 9 9 10 10 10 10 10 10 10 11 11 11 11 12 13 14 14 12 11 11 8 7 6 6 8 8 9 10 11
20 18 18 18 18 18 17 15 15 13 12 11 10 10 10 10 11 11 11 10 11 11 11 11 11 11 12 13 13 14 15 14 13 11 10 9 7 7 9 8 8 9 10
20 19 18 17 17 16 15 14 13 12 11 10 10 10 11 11 11 11 11 10 10 11 12 12 13 13 13 13 14 14 13 13 13 12 11 9 8 7 8 9 8 10 10
18 18 18 16 15 13 13 13 12 11 11 12 12 12 12 12 11 12 11 10 11 10 10 11 10 11 11 11 12 12 13 13 11 10 11 10 11 10 10 11 11 11 11
18 17 17 15 14 13 13 12 11 11 12 12 12 12 11 11 10 9 8 8 7 6 6 7 7 8 8 9 9 10 11 12 12 11 10 11 13 14 13 13 14 14 13
17 17 17 15 14 13 13 13 12 12 12 12 12 10 9 8 7 6 5 4 4 3 2 3 4 5 5 6 8 9 10 10 11 10 10 12 12 13 15 14 14 16 16
18 19 18 16 14 14 13 13 12 12 12 12 10 8 6 5 4 3 2 1 0 1 2 3 3 5 5 6 8 9 10 10 10 11 11 14 14 15 15 15 16 16 16
23 21 19 15 14 12 11 10 10 10 9 9 8 6 5 4 4 4 3 2 1 2 2 3 4 3 4 6 8 9 9 10 11 12 13 16 16 16 17 16 16 17 19
23 19 16 14 11 10 9 7 7 6 7 7 6 7 7 7 6 6 5 4 3 2 2 2 2 3 4 5 7 8 10 10 11 11 13 15 16 17 17 17 17 18 18
19 18 16 14 11 8 6 4 4 5 6 7 8 8 9 9 8 5 3 3 3 2 1 2 2 2 4 6 9 11 12 13 14 12 14 17 18 18 18 17 16 16 17
14 15 14 12 10 5 2 1 4 6 9 11 11 12 11 10 6 3 2 3 2 1 2 3 4 5 8 9 11 13 14 14 14 15 12 12 15 17 18 18 17 18 18
14 13 13 12 9 6 5 6 10 9 8 7 5 8 10 7 4 4 2 1 1 3 4 4 6 8 8 12 13 13 15 17 13 14 11 10 9 11 11 12 14 15 17
11 11 13 13 15 17 16 16 14 15 14 10 10 10 3 2 2 0 2 3 4 5 6 8 9 11 11 11 13 14 15 15 13 10 7 5 4 6 8 10 12 12 13
11 15 17 19 19 15 8 9 14 15 10 6 4 5 7 8 7 5 5 4 5 6 8 10 11 12 12 12 14 15 13 15 12 5 3 3 6 8 11 14 16 18 18
13 17 18 19 17 10 7 16 17 6 8 9 10 9 8 8 6 5 5 5 6 9 10 12 13 12 11 12 16 13 15 14 7 2 4 4 7 10 11 15 17 17 21
19 20 21 19 12 12 6 11 16 12 10 10 8 7 6 5 4 5 6 7 9 11 12 12 10 11 12 11 12 13 12 5 6 4 6 6 9 10 13 15 14 14 14
18 19 18 14 15 13 17 17 13 12 7 6 5 4 3 3 5 6 7 8 10 10 12 13 11 11 11 10 9 12 4 6 5 4 4 5 8 11 14 13 13 11 11
16 17 16 16 15 15 15 14 11 9 6 4 2 2 3 4 5 7 8 8 9 10 10 13 12 10 11 9 7 5 4 4 12 7 9 8 12 12 13 13 11 11 10
17 20 21 19 18 16 13 8 5 2 2 2 2 2 3 6 7 8 8 8 9 12 13 12 9 8 8 11 10 5 7 7 4 7 10 17 17 15 16 13 13 12 11
12 14 16 15 11 9 7 5 3 4 4 3 3 4 6 8 9 9 8 9 10 13 12 11 7 7 7 8 8 7 7 9 9 8 9 13 16 16 15 15 16 11 12
10 10 11 9 9 6 5 4 5 5 4 4 6 7 9 10 9 10 11 12 13 13 11 7 7 7 7 7 7 7 9 9 12 12 10 17 17 19 15 15 13 12 12

GFSSE_925_spd_048.txt.gz
Wind_Speed
18 18 22 20 20 21 21 22 22 22 21 20 19 16 15 14 13 12 11 9 8 9 9 8 8 8 9 9 8 9 9 9 8 8 7 7 9 10 10 11 12 9 9
20 19 23 22 22 21 21 22 22 21 20 19 17 15 14 12 11 10 10 9 9 10 10 9 8 8 9 9 10 10 10 10 9 9 8 6 8 10 11 11 10 10 11
19 18 21 22 22 21 21 20 20 19 18 17 16 14 13 11 10 9 8 8 8 9 8 6 7 8 9 10 11 12 11 11 10 9 9 6 7 10 10 10 10 11 12
20 18 19 22 22 22 21 20 19 17 17 16 14 13 11 10 9 8 7 7 8 9 8 8 10 10 11 11 12 13 13 13 11 10 6 4 5 8 10 10 12 12 11
18 17 19 22 22 22 20 19 17 16 15 14 12 11 10 9 8 9 8 8 9 9 9 9 10 10 12 12 13 13 13 13 14 9 7 6 5 7 8 8 8 10 11
16 15 19 21 21 21 20 18 16 15 13 11 10 10 9 9 9 9 9 9 10 9 10 10 10 10 12 12 13 14 14 13 12 9 7 7 7 9 10 8 8 9 11
16 15 16 19 19 19 18 16 14 12 11 10 10 10 10 10 10 10 10 10 10 10 9 9 10 12 12 12 13 13 13 14 10 9 8 7 8 10 11 9 9 9 10
18 16 16 17 17 17 15 14 12 11 10 10 11 11 10 10 10 10 10 10 10 10 11 11 11 11 11 11 11 12 12 11 9 9 8 7 11 10 11 11 12 11 11
16 16 15 14 14 14 12 12 11 10 9 10 10 11 11 10 10 10 10 10 8 9 9 8 8 8 8 8 9 11 11 12 10 9 8 8 11 11 11 11 11 12 12
15 14 14 13 12 10 10 10 10 10 10 11 11 10 10 10 9 8 8 6 5 5 5 5 4 4 6 7 8 9 10 10 9 9 8 9 11 12 12 11 10 11 12
14 14 13 12 10 10 9 9 9 10 10 10 10 9 8 5 5 4 4 3 2 1 1 1 1 3 4 6 7 8 9 7 8 9 9 12 13 13 14 13 12 12 12
15 14 11 10 10 9 9 9 8 8 7 7 7 6 4 3 2 2 0 1 2 3 3 4 4 5 4 4 5 8 7 7 8 10 10 15 16 17 17 16 15 14 14
16 13 10 10 10 9 8 8 7 6 6 6 4 3 1 0 2 3 3 3 4 5 3 3 4 3 3 5 5 6 6 7 8 10 12 15 16 18 19 19 18 17 16
15 12 12 10 9 8 8 7 6 6 5 4 3 2 2 2 3 4 5 5 5 5 4 3 4 3 3 4 5 6 7 8 10 13 14 16 17 18 19 19 18 18 17
13 12 12 11 10 9 8 6 4 3 1 1 2 4 3 4 3 3 3 4 4 5 4 4 4 5 6 6 7 9 10 11 12 12 14 18 18 17 18 17 16 17 18
11 11 11 11 9 9 7 6 5 4 3 3 5 6 6 7 5 3 2 3 3 3 3 3 4 6 8 10 10 12 13 14 15 15 15 16 18 16 15 15 15 15 17
10 11 12 10 8 9 10 10 10 10 10 10 10 9 6 3 1 2 2 1 0 2 3 5 6 8 10 13 14 16 18 18 18 17 16 15 14 15 14 12 12 12 12
9 11 13 13 13 13 14 14 14 16 15 19 6 4 6 3 5 5 3 2 2 4 5 7 9 11 13 16 17 19 20 20 19 18 15 13 12 11 12 13 13 14 16
10 13 15 17 16 16 15 19 8 8 17 3 5 8 10 9 9 6 5 4 4 5 6 9 11 12 15 16 17 20 20 19 20 17 13 10 8 9 11 13 18 17 19
13 16 18 18 18 15 3 9 12 14 6 8 7 8 8 6 5 4 4 4 5 7 8 9 11 13 15 16 18 21 18 20 19 15 10 9 8 10 11 14 15 15 18
14 17 17 18 18 13 9 4 8 10 8 7 6 6 5 4 4 4 4 6 7 8 9 10 12 14 16 15 18 19 19 17 11 10 10 12 11 11 13 14 15 16 15
14 15 15 14 12 11 8 11 10 10 7 6 5 5 5 4 4 4 4 5 6 9 10 11 12 14 15 14 15 20 10 15 18 7 10 11 13 16 16 16 16 15 15
14 14 13 12 12 11 11 9 8 6 6 3 2 1 2 2 3 3 4 5 7 9 11 11 11 12 14 15 12 11 8 9 19 20 11 16 16 18 17 17 17 15 16
15 14 14 14 14 13 12 9 9 4 4 1 1 1 1 2 3 4 5 5 7 8 10 11 11 11 12 15 14 13 13 15 7 8 17 19 17 15 18 19 19 18 17
14 13 11 11 9 9 7 7 6 4 4 2 1 3 5 5 5 5 5 7 9 10 11 11 10 11 12 13 14 15 14 15 15 11 10 17 23 22 22 23 21 21 19
10 10 10 10 9 7 7 7 6 5 3 0 3 5 7 8 7 8 10 11 12 13 12 12 12 13 14 15 16 15 13 12 15 13 12 17 19 24 24 26 18 18 23

GFSSE_925_spd_051.txt.gz
Wind_Speed
19 20 19 19 18 20 21 21 20 19 18 17 16 15 14 13 12 12 11 10 10 11 10 8 8 8 10 10 11 11 11 11 10 8 6 8 11 13 13 11 19 12 13
21 21 21 20 20 20 21 20 19 19 17 16 14 13 13 12 12 11 10 9 9 10 8 8 9 10 11 11 12 11 11 11 10 8 3 8 12 13 14 14 14 14 14
22 21 20 20 20 20 20 19 18 17 15 13 12 12 11 10 10 9 8 8 8 8 9 9 10 11 11 12 12 11 12 11 10 8 4 9 12 10 12 13 13 13 13
21 21 18 21 20 19 18 17 17 15 13 13 11 10 9 8 8 8 8 8 8 9 9 10 10 11 12 13 13 13 12 12 10 7 2 11 16 14 10 13 12 12 12
19 20 23 20 20 18 17 16 15 14 13 11 9 8 7 7 8 8 8 8 8 8 9 9 10 11 12 12 13 13 12 10 6 6 8 4 12 14 10 8 11 13 14
19 18 22 21 20 18 16 15 13 13 12 10 8 8 7 7 8 8 8 8 8 8 8 8 10 10 12 12 12 13 12 10 12 9 8 14 13 12 10 10 10 11 12
18 18 20 20 18 17 15 14 13 12 10 9 8 8 8 8 9 9 9 9 8 8 8 9 10 9 11 12 13 13 12 12 11 9 7 14 13 10 10 10 9 9 11
20 20 17 18 17 16 14 13 11 10 10 9 9 9 9 9 9 9 9 9 9 9 9 9 8 8 9 10 11 12 13 10 11 9 7 14 10 10 10 9 10 10 9
15 17 17 15 15 14 12 11 11 9 9 9 9 9 10 10 10 10 9 9 8 7 6 6 6 7 8 9 10 11 12 13 11 9 6 10 11 11 11 11 10 10 11
17 16 16 15 14 11 11 11 10 9 9 9 10 9 10 10 9 10 8 5 4 3 3 4 4 5 6 7 9 10 8 8 9 9 8 9 11 11 12 13 11 10 10
18 17 16 15 12 12 10 10 9 9 9 9 9 10 8 6 5 7 3 2 2 3 4 4 5 6 7 5 7 11 8 9 10 9 8 10 15 15 15 14 14 14 12
17 15 13 12 11 11 10 10 9 8 8 7 6 5 4 4 2 3 1 3 4 6 6 7 7 8 7 9 7 10 10 11 12 11 9 12 17 18 17 18 18 16 14
17 15 13 13 11 10 11 10 9 8 7 6 5 3 3 2 2 2 3 6 2 5 7 6 7 8 8 9 10 10 11 12 14 13 15 15 17 19 20 20 19 18 15
16 14 14 13 12 10 10 9 8 7 6 5 4 2 2 3 2 3 4 4 4 5 7 8 10 8 9 9 9 9 11 12 13 14 16 19 20 22 21 19 15 14 13
16 15 14 14 13 12 10 9 8 6 3 4 3 3 6 7 6 4 4 4 3 6 6 8 9 11 11 12 12 13 13 14 15 16 17 23 21 18 20 18 16 13 14
17 16 15 14 12 11 10 8 8 10 10 9 9 9 7 6 5 3 4 3 4 4 6 7 8 12 13 15 15 15 17 18 19 19 20 20 24 17 16 16 16 15 15
16 17 16 15 13 12 13 12 12 11 12 13 10 8 7 4 2 3 3 3 4 6 6 7 9 12 14 17 18 20 20 21 21 22 21 21 20 18 12 12 13 15 15
14 15 15 14 16 17 17 16 13 8 11 15 13 6 5 5 6 4 4 4 2 4 5 8 11 14 16 19 21 21 21 22 23 22 21 19 14 15 14 7 15 19 18
13 15 15 17 19 18 16 11 13 12 10 15 2 5 5 6 5 6 4 4 5 7 8 9 12 14 17 19 20 20 21 23 21 21 21 17 13 11 13 17 17 20 12
13 16 17 20 20 19 14 9 8 13 8 5 5 5 4 3 3 3 2 3 6 7 8 10 12 13 15 18 20 21 22 21 23 19 18 12 13 10 13 14 16 16 16
12 15 19 19 17 13 9 6 8 6 10 11 8 6 4 2 2 3 4 6 7 9 9 10 12 14 16 18 20 22 22 27 23 17 17 16 13 15 14 18 18 16 18
13 16 18 15 16 11 9 8 11 14 13 11 8 6 3 2 3 4 6 8 8 11 10 11 13 15 17 17 20 22 11 20 21 16 16 20 17 17 18 18 18 17 16
14 15 17 15 14 12 12 12 11 9 8 8 6 5 1 3 4 6 7 8 8 9 11 12 13 14 18 18 17 19 12 11 20 23 23 22 22 20 20 19 18 18 18
18 16 15 15 14 12 11 10 11 12 6 5 2 1 3 4 6 7 8 8 9 11 13 13 15 16 17 19 21 20 20 22 11 12 19 20 24 23 19 20 23 22 21
17 16 15 14 12 11 7 7 7 4 2 2 2 3 6 8 8 8 9 9 11 14 15 16 17 17 18 21 21 21 20 20 19 16 12 17 22 22 24 25 24 24 23
15 14 13 13 12 10 8 6 4 4 1 2 3 7 8 9 8 9 10 12 15 17 17 18 17 18 19 19 19 20 18 17 15 14 9 17 19 24 25 26 27 28 24

GFSSE_925_spd_054.txt.gz
Wind_Speed
25 27 21 20 20 21 21 21 20 20 19 18 16 15 15 14 14 13 13 14 13 13 14 14 13 14 14 13 13 13 12 10 8 7 9 9 11 13 15 17 18 18 18
28 27 22 21 21 22 22 22 20 20 18 17 15 14 14 13 13 13 12 13 11 13 14 14 14 14 14 14 14 14 12 9 6 6 9 13 13 14 15 17 18 17 18
28 28 24 23 22 22 22 22 21 19 17 16 15 13 12 12 12 11 11 11 12 14 15 14 14 14 15 15 15 14 12 8 5 4 7 9 13 15 17 17 17 17 18
25 24 25 24 22 22 22 21 20 17 15 15 14 12 11 11 11 11 11 12 13 14 14 14 14 14 14 15 15 13 10 8 8 10 8 14 15 16 16 15 13 14 14
27 23 26 23 23 20 20 18 17 15 14 13 11 10 10 11 11 11 11 12 12 13 13 13 13 14 14 14 14 13 8 11 11 11 14 18 17 15 13 12 13 14 15
25 23 24 21 21 21 18 17 15 14 12 11 10 10 10 10 11 10 11 11 12 12 12 12 13 14 14 15 15 13 11 14 20 14 13 12 15 13 11 10 12 12 13
21 24 21 20 19 19 17 15 14 12 11 10 10 10 10 10 10 11 11 11 11 11 12 12 12 13 13 14 16 15 12 13 13 15 14 17 16 14 12 11 11 10 10
20 20 20 18 18 18 16 15 14 12 10 10 10 10 10 10 10 10 11 12 12 12 10 10 10 10 12 14 15 15 15 15 15 10 11 18 15 13 12 12 12 12 11
21 19 19 18 19 17 15 14 13 11 10 11 11 11 10 11 11 11 12 10 9 8 8 8 8 9 11 12 14 14 11 12 15 15 9 14 15 13 13 13 12 12 12
20 22 21 19 17 16 15 13 12 12 11 11 12 11 12 12 12 11 10 7 5 5 5 5 6 7 9 8 9 13 10 12 13 14 8 11 12 13 14 14 15 14 13
25 24 22 22 18 13 12 12 11 11 12 12 13 12 12 8 8 7 6 3 4 6 5 5 6 8 8 8 7 9 14 12 13 15 8 11 14 15 16 16 16 16 15
20 24 24 21 19 15 14 14 10 13 13 11 10 6 2 5 7 4 1 3 4 6 5 4 6 9 8 12 11 10 12 13 16 18 9 13 15 17 19 20 18 15 14
16 22 18 17 16 14 14 16 12 11 11 8 5 3 7 3 1 3 6 6 3 6 7 5 10 4 8 9 11 11 12 13 14 16 19 21 18 21 22 22 19 13 12
24 21 18 17 13 17 15 15 13 14 11 10 8 5 3 1 2 5 3 6 6 10 9 7 8 10 9 8 10 8 12 13 15 17 17 20 23 21 20 17 18 14 13
22 20 19 19 16 17 12 15 14 13 10 10 7 6 3 3 4 4 4 7 11 5 7 7 10 10 11 13 15 14 15 18 17 18 18 21 21 24 18 14 12 14 13
25 23 21 19 18 15 17 13 19 17 16 15 9 7 5 7 7 4 4 3 5 6 7 7 9 11 13 15 18 17 17 18 17 18 20 21 21 23 12 9 11 13 14
23 23 21 20 17 18 22 20 18 14 12 13 10 8 7 7 7 6 3 2 5 6 8 9 12 13 15 17 18 20 20 19 20 21 22 22 21 14 8 9 12 16 15
24 22 21 20 21 24 24 20 15 15 10 5 5 10 8 12 10 5 8 8 8 10 8 9 12 14 16 18 19 19 18 19 22 23 20 20 19 10 11 7 14 19 16
25 23 20 25 23 24 22 18 16 8 5 3 6 8 8 12 9 7 9 6 7 6 8 9 12 13 16 17 19 20 21 23 22 23 24 19 19 10 5 9 13 15 13
26 25 23 23 22 21 18 15 11 9 6 4 9 10 11 8 4 4 3 3 5 8 8 11 10 12 15 18 20 19 20 19 23 26 28 18 13 3 7 9 14 14 12
21 28 26 23 20 18 15 11 8 10 9 11 10 10 8 5 3 1 3 5 7 7 9 9 10 13 15 19 20 22 16 22 22 21 20 21 21 20 13 10 8 13 13
21 23 20 17 16 13 14 12 11 11 12 11 12 9 6 4 1 2 2 3 6 8 10 9 12 15 16 16 21 19 6 15 17 23 23 19 18 23 21 18 18 16 17
20 20 16 16 18 19 14 13 15 15 13 14 11 10 9 5 1 3 4 6 7 7 10 12 12 11 12 18 15 16 7 5 17 15 22 21 22 21 18 20 18 20 19
15 14 20 23 20 14 15 14 14 13 12 10 12 13 6 1 2 4 6 7 7 8 11 12 12 16 15 14 16 16 18 21 5 7 9 20 18 21 20 21 20 18 19
23 23 22 19 16 15 10 15 14 7 11 10 7 4 2 7 6 8 8 9 8 11 14 16 17 10 13 17 16 16 17 19 17 10 6 9 18 16 21 21 22 25 27
16 17 17 17 15 14 9 8 6 7 9 10 5 3 4 3 8 6 5 5 7 12 14 16 17 15 14 17 20 17 13 9 12 11 5 8 12 17 17 22 23 22 24

GFSSE_925_spd_057.txt.gz
Wind_Speed
22 24 23 24 24 23 23 23 24 25 24 23 22 21 20 19 18 18 17 16 16 16 15 15 16 16 16 16 15 14 12 12 13 14 13 15 16 18 18 17 19 20 17
30 23 23 24 24 24 24 24 25 24 24 23 22 21 19 18 16 16 14 14 17 16 16 17 17 17 16 16 15 13 13 13 12 13 13 15 16 17 19 18 18 18 17
29 25 25 25 25 24 24 25 25 24 23 22 20 19 18 16 15 15 14 16 17 17 17 17 17 17 17 17 14 13 14 14 10 7 13 15 15 15 17 17 18 17 17
36 27 26 28 27 25 25 23 22 23 22 21 19 18 17 15 15 16 16 16 16 17 17 17 17 18 17 16 14 13 17 23 13 12 13 13 16 15 14 16 17 17 17
33 33 28 29 27 26 24 21 21 22 21 19 18 17 17 16 16 16 16 15 16 15 16 17 18 18 18 17 15 14 21 27 24 21 16 14 16 14 14 14 15 15 15
33 34 29 28 27 24 22 21 21 21 19 18 16 16 16 16 16 16 15 14 14 15 16 17 18 18 19 19 17 17 20 25 16 16 15 15 17 15 15 14 14 14 14
34 27 29 27 26 23 20 20 19 19 18 17 15 16 16 16 16 15 15 15 14 16 15 16 16 16 18 19 19 18 18 24 10 15 17 17 16 16 15 15 15 16 15
33 22 22 22 21 22 19 19 18 17 17 16 16 16 16 16 15 16 15 15 14 13 13 13 14 14 15 16 17 17 16 19 15 12 14 15 14 15 13 13 13 13 13
30 21 20 20 20 21 19 17 16 16 16 16 16 17 18 17 16 15 14 12 11 11 10 10 11 11 11 12 15 15 16 14 19 4 10 13 13 14 14 14 14 13 12
24 22 21 21 21 21 18 16 15 16 15 16 17 18 18 17 15 13 11 10 9 8 8 9 9 9 9 10 10 13 15 12 21 10 9 12 13 12 13 14 16 15 13
21 19 20 23 21 20 18 16 16 16 16 17 18 18 16 13 12 9 9 7 6 8 8 10 10 9 10 13 10 10 12 12 17 14 11 13 13 13 14 17 17 15 14
23 24 21 22 21 19 18 16 17 17 17 18 16 13 11 9 7 5 4 3 4 4 6 6 6 7 8 9 9 9 10 11 11 16 17 16 13 14 14 15 15 14 12
29 22 25 24 24 20 20 19 21 19 16 14 9 5 7 10 9 3 2 5 2 4 5 5 7 8 8 9 10 9 10 11 10 13 16 20 21 18 15 13 11 11 12
23 26 30 23 26 19 22 20 19 17 14 11 12 10 7 8 5 3 6 10 8 15 16 13 9 6 8 10 12 14 13 14 15 16 16 16 18 18 13 8 8 10 12
28 26 26 21 24 21 18 15 20 21 20 16 10 8 5 5 5 6 7 6 6 5 7 7 8 10 11 11 10 12 14 17 13 12 17 19 21 20 12 5 9 11 12
25 22 24 21 22 18 26 26 23 21 18 13 10 9 9 9 8 6 5 6 6 9 9 9 9 10 10 11 12 14 16 16 16 18 20 21 20 17 7 5 9 11 11
26 25 26 26 20 25 23 21 21 18 15 14 14 11 10 10 8 9 7 9 12 11 10 7 6 7 10 12 13 13 14 17 19 19 16 17 20 15 5 4 9 11 8
35 29 25 21 24 26 22 21 19 16 14 14 14 14 13 13 11 11 11 10 8 7 5 3 7 12 11 12 13 14 18 19 18 20 25 22 18 17 2 3 6 9 10
33 32 27 26 28 26 22 19 18 14 10 12 13 14 15 14 12 9 9 7 8 4 4 6 10 9 12 14 16 15 15 17 19 20 22 24 16 7 4 3 8 12 8
34 36 36 33 29 26 22 19 14 6 8 11 13 14 14 12 11 7 7 6 3 5 7 7 6 9 11 13 13 18 15 15 14 21 23 22 18 16 16 14 13 10 12
35 38 38 34 29 26 21 17 11 8 9 11 12 13 12 10 8 8 9 8 6 6 7 6 8 10 12 13 13 21 17 7 19 15 17 18 19 20 16 16 17 16 13
32 35 32 29 27 23 20 15 9 12 10 16 15 14 12 8 7 8 3 1 5 6 5 9 13 12 11 13 15 13 4 14 10 20 17 16 16 15 15 16 14 16 14
30 31 27 24 23 22 19 16 13 15 18 18 17 13 8 8 7 4 1 4 5 5 8 11 12 11 11 14 10 6 3 2 8 5 18 10 20 18 16 16 16 11 13
24 21 21 20 21 21 15 22 22 20 23 21 17 11 9 8 3 3 5 8 9 9 8 11 12 15 14 9 9 14 15 13 2 4 2 16 15 20 16 16 13 17 18
27 26 23 21 20 16 22 22 24 22 15 17 17 14 9 2 2 4 7 7 5 5 6 8 11 13 14 12 11 11 14 14 15 3 5 4 10 12 17 16 19 22 19
18 21 26 22 18 19 19 20 17 20 21 21 17 12 7 8 6 7 3 2 2 7 11 14 17 17 18 15 16 15 11 6 11 10 3 4 10 16 15 14 16 17 20

GFSSE_925_spd_060.txt.gz
Wind_Speed
25 29 29 28 25 24 23 21 22 22 23 25 25 24 23 22 21 20 19 18 17 17 18 17 18 18 19 19 20 19 18 17 19 18 18 17 18 20 19 19 20 19 17
31 31 34 31 25 25 23 22 22 22 23 24 24 23 21 20 19 18 18 18 18 18 18 19 19 19 19 21 23 20 17 15 16 17 16 17 16 20 19 19 20 18 17
30 30 33 32 28 26 24 22 21 21 23 23 23 21 20 19 18 18 19 19 19 18 19 20 20 20 20 23 24 20 10 8 13 16 15 16 18 18 18 18 18 18 17
32 31 33 36 28 26 25 24 21 20 22 21 21 20 19 19 19 20 19 19 19 19 19 21 21 21 20 23 26 25 23 17 18 15 14 15 15 16 17 17 17 17 16
30 32 33 36 34 29 26 24 21 21 21 20 19 20 19 20 20 19 19 18 18 19 20 21 22 22 22 24 28 23 23 22 19 14 13 14 15 15 15 16 16 16 15
29 30 32 34 32 30 27 25 21 20 20 19 18 20 19 20 20 19 18 18 18 19 20 21 22 23 23 23 28 27 18 18 16 14 15 16 16 16 17 17 16 16 16
28 28 29 32 29 27 25 23 20 19 18 18 19 19 19 19 20 19 18 19 18 18 18 19 19 21 21 21 22 25 20 13 14 15 15 15 15 15 15 15 14 13 13
28 30 22 23 25 24 22 21 19 18 18 17 19 19 19 20 20 19 18 17 17 15 16 15 17 16 18 18 18 25 23 14 11 12 13 13 13 13 14 14 14 13 12
30 31 27 25 23 21 20 19 18 17 17 17 18 19 19 20 20 18 16 14 14 13 13 13 14 14 14 14 16 16 21 18 9 9 11 12 11 11 12 13 14 14 13
26 34 33 24 18 23 21 18 19 18 17 17 19 19 20 19 18 15 14 12 12 11 12 12 11 13 12 9 10 11 16 17 14 9 12 10 9 9 10 11 12 13 14
22 20 28 26 20 21 21 19 19 19 19 19 20 18 17 17 15 13 12 10 10 11 11 10 10 11 10 11 10 9 11 14 13 11 12 9 8 7 7 9 10 11 12
21 21 20 24 27 23 22 19 19 19 19 19 18 16 13 12 12 10 9 6 6 6 5 6 5 9 9 10 10 9 9 11 12 13 13 11 12 6 6 8 9 10 11
29 21 23 25 25 24 22 21 20 20 20 17 13 11 9 6 8 6 5 6 5 5 6 9 11 12 12 11 10 10 9 8 9 10 12 13 12 8 5 5 7 9 8
25 23 20 21 23 21 23 23 23 20 18 12 10 12 13 13 11 12 12 12 14 14 13 10 9 8 7 8 9 10 10 11 10 11 13 15 15 12 4 6 8 10 10
24 20 24 24 23 23 26 23 21 17 13 16 15 13 11 12 12 11 12 13 12 10 8 7 5 6 7 9 10 11 13 12 13 15 15 14 15 10 2 6 8 8 7
25 21 27 27 24 23 23 20 17 19 20 17 13 11 10 10 11 12 11 10 10 7 6 6 8 9 10 10 11 11 12 14 16 16 15 17 14 11 3 5 6 5 6
30 30 29 28 26 25 21 25 25 24 19 15 13 12 11 10 11 11 13 12 10 7 6 7 8 8 10 9 10 10 13 15 15 18 19 17 10 6 2 3 5 5 6
32 32 27 24 27 27 29 27 23 19 17 16 15 14 13 13 13 13 12 10 7 6 6 7 7 8 8 9 9 10 11 12 13 15 16 22 13 4 6 7 4 6 5
34 32 26 27 30 30 28 24 20 18 16 15 15 15 16 15 15 11 10 9 6 4 3 5 6 5 7 7 8 10 14 9 14 12 16 17 18 15 7 4 3 6 5
32 34 31 30 30 29 26 22 19 16 15 13 14 17 16 13 12 11 11 9 6 4 2 2 3 5 5 7 6 16 8 6 15 11 13 14 14 12 10 9 8 7 8
31 36 36 35 34 32 28 24 18 14 15 16 17 16 15 13 13 10 10 9 6 2 3 3 4 5 6 9 3 16 2 7 3 20 17 12 12 9 8 7 9 6 5
37 39 38 38 37 33 28 24 17 15 15 16 18 16 15 12 10 7 5 2 2 1 2 3 7 7 7 8 6 4 3 7 3 21 4 13 6 14 12 7 7 5 7
31 38 39 39 35 30 24 18 12 16 18 20 18 19 15 10 8 5 3 4 1 1 4 5 7 7 6 7 4 2 2 2 7 7 17 4 16 8 12 10 8 6 10
29 35 35 32 29 27 23 20 19 21 25 24 24 20 16 10 7 5 3 2 1 1 2 4 6 7 9 8 7 8 10 10 2 4 3 13 12 15 15 12 7 10 12
34 35 29 27 26 25 24 22 24 26 25 26 24 18 15 13 10 7 5 3 2 2 3 6 8 9 10 11 13 9 7 10 10 5 5 3 15 12 15 15 10 13 13
33 31 24 25 26 25 25 22 29 28 26 26 22 18 13 9 8 4 3 2 1 3 6 7 9 11 12 13 15 15 12 7 6 7 4 10 9 15 15 11 11 14 16

GFSSE_925_spd_063.txt.gz
Wind_Speed
27 25 28 27 27 27 28 28 27 27 26 25 25 24 24 23 22 20 20 19 19 20 21 21 22 23 23 22 22 20 20 20 20 20 19 20 21 21 21 21 22 20 19
31 30 31 29 29 28 29 29 25 24 25 23 23 23 22 21 20 19 20 21 21 21 21 22 23 25 24 18 17 17 18 19 20 19 17 19 20 20 21 21 21 20 20
29 31 31 31 31 30 29 29 26 23 22 21 20 20 20 20 20 20 21 22 21 21 22 22 23 26 24 23 19 15 17 17 18 17 17 18 19 18 19 21 20 19 20
28 30 30 31 32 32 30 31 24 24 21 19 19 19 20 21 21 22 22 22 22 21 22 25 28 28 26 24 25 24 19 17 16 16 17 17 18 17 18 19 18 18 18
29 32 30 31 31 32 30 29 25 22 20 18 18 20 20 20 22 23 22 22 22 23 25 27 29 28 29 25 23 23 21 18 15 16 17 17 17 16 19 20 19 19 19
27 29 30 31 31 31 31 27 25 23 19 17 18 19 20 20 21 22 22 22 23 24 25 25 27 27 28 27 23 20 17 16 16 17 18 17 17 15 17 18 17 16 16
27 29 30 29 28 28 27 26 24 20 18 17 18 19 20 20 21 22 23 22 22 22 22 21 23 26 25 25 21 18 16 15 15 16 16 15 14 13 14 15 15 15 14
27 29 30 27 23 24 25 25 20 17 18 18 18 18 19 19 20 22 21 21 20 20 19 18 19 19 21 21 21 19 15 13 13 14 14 13 11 12 13 13 13 14 14
29 31 24 27 22 20 24 20 19 18 18 19 19 19 19 19 20 20 19 19 18 17 16 16 16 14 14 17 18 19 16 11 12 13 12 10 8 8 9 10 12 13 14
27 28 28 25 23 18 19 17 18 18 19 19 19 20 19 18 18 18 17 16 16 14 14 14 13 14 15 16 16 15 15 13 11 9 10 9 7 6 7 7 8 10 13
21 23 27 25 24 21 18 18 18 18 18 19 20 20 18 16 16 15 14 15 13 13 12 12 11 11 11 12 15 14 14 12 9 9 8 6 6 4 5 5 6 8 11
17 31 28 17 17 18 19 19 20 21 20 20 19 17 16 14 12 13 12 11 10 8 8 9 10 10 11 11 10 11 12 11 11 11 8 7 6 5 3 4 5 7 8
24 24 25 22 22 22 21 20 20 21 21 20 17 14 13 11 9 8 8 9 7 7 11 11 12 12 11 10 10 10 11 13 11 11 10 8 6 5 2 4 5 5 5
29 32 26 21 23 21 19 21 21 21 20 17 15 12 7 11 12 11 11 11 12 12 14 13 12 10 10 10 10 8 9 10 10 10 10 10 8 6 2 3 4 4 5
35 29 23 19 22 20 22 21 21 21 17 14 14 14 12 13 12 13 14 14 14 12 10 10 9 9 11 11 10 10 12 12 12 12 11 11 8 5 1 2 3 4 6
28 24 23 22 22 21 21 22 20 19 17 16 14 14 12 13 16 15 15 13 12 9 9 9 10 9 11 10 11 12 14 13 13 14 16 14 8 4 2 4 2 3 4
22 23 19 24 22 22 22 21 18 18 18 16 14 12 13 15 14 14 13 13 12 10 9 9 8 8 10 12 12 11 12 11 11 12 15 13 3 6 6 5 3 3 2
27 24 24 26 23 23 23 19 19 18 18 16 14 14 15 14 14 15 15 13 11 9 6 6 8 10 11 11 10 9 10 7 10 12 16 18 12 7 5 5 4 3 1
24 25 28 29 26 26 21 21 21 19 16 16 16 15 15 16 16 14 12 12 8 4 4 6 7 8 8 6 4 10 3 6 9 12 15 13 11 9 6 4 2 2 0
25 28 29 28 27 24 26 23 21 19 18 17 16 16 17 17 14 12 11 9 5 3 1 3 4 3 2 2 3 11 0 5 5 15 17 8 10 6 5 3 2 2 3
27 30 29 29 30 32 29 26 23 21 18 16 16 17 17 16 12 10 9 7 5 2 1 4 2 1 1 2 4 7 2 1 5 13 9 4 14 3 9 7 5 4 4
29 32 32 33 34 34 32 28 24 21 17 18 20 18 15 13 13 9 7 6 5 2 6 3 1 1 1 2 3 2 3 5 9 14 5 10 3 8 11 8 6 4 4
33 35 37 36 36 34 31 24 18 19 16 20 21 19 17 15 11 8 5 3 4 4 4 2 2 2 3 3 3 1 1 3 4 4 8 5 7 15 11 9 7 7 7
39 38 38 37 35 34 28 23 20 23 23 22 24 22 20 15 11 10 8 8 7 5 2 1 2 2 6 7 6 8 10 9 3 4 4 6 14 14 16 17 11 9 7
29 36 36 35 33 32 28 23 21 20 23 23 23 23 19 16 11 7 8 5 4 3 0 2 3 4 6 7 8 9 9 10 10 8 3 3 6 14 19 21 16 9 8
29 31 34 31 30 30 28 24 22 22 23 22 23 20 17 12 11 7 7 6 2 6 2 3 6 7 8 8 10 11 13 9 6 9 5 8 8 10 17 17 13 8 8

GFSSE_925_spd_066.txt.gz
Wind_Speed
28 31 31 32 32 34 35 34 34 33 32 29 27 25 22 22 21 21 22 23 24 22 21 22 21 22 22 22 23 23 23 23 20 20 21 21 22 22 22 22 22 22 21
30 33 33 34 34 35 35 34 33 32 31 27 25 24 22 22 21 22 25 25 24 22 22 23 22 19 20 21 23 22 23 21 20 21 21 21 21 21 20 20 20 21 21
31 33 32 34 35 35 35 33 29 28 28 26 24 22 21 21 23 24 26 27 24 23 22 22 20 22 18 19 22 23 22 20 20 21 22 22 20 19 19 19 20 19 19
30 32 32 33 33 33 31 30 28 25 26 23 22 21 21 22 24 25 27 28 26 24 23 23 23 24 25 24 23 21 20 20 19 20 22 21 20 18 19 20 20 20 19
28 30 32 32 33 33 31 29 26 25 23 21 21 21 22 22 23 25 27 29 27 25 24 26 26 25 26 26 24 21 19 19 19 21 21 20 19 17 18 19 19 19 18
26 28 31 32 32 31 29 27 24 24 22 21 21 21 21 20 23 25 26 28 27 25 28 27 26 25 24 24 22 19 19 19 19 19 19 17 16 15 16 17 17 18 18
24 29 30 30 31 30 26 24 22 21 20 20 20 21 21 21 23 24 26 27 27 27 26 26 25 23 22 21 19 18 18 17 17 17 16 14 13 13 13 14 15 16 17
25 30 30 28 27 28 23 18 18 21 20 19 19 21 21 21 23 23 24 24 23 24 24 22 21 22 20 20 18 17 15 16 16 14 12 12 11 11 11 12 13 15 17
24 30 29 28 28 28 24 18 19 18 19 19 19 19 20 22 22 22 21 20 19 19 20 20 18 20 20 19 18 15 14 15 13 12 10 11 9 9 9 10 11 13 16
27 29 26 27 26 24 21 20 19 19 20 20 19 21 21 21 19 19 18 17 16 17 17 18 21 20 19 19 17 15 15 11 10 10 8 8 6 5 6 7 8 11 14
23 24 28 30 25 22 17 17 18 19 19 20 21 21 21 20 18 17 16 16 15 16 14 16 16 17 17 18 16 14 10 9 7 7 5 4 6 4 5 5 6 8 9
22 20 25 30 39 20 18 17 18 19 20 20 22 20 19 18 18 17 15 13 12 12 13 15 14 15 15 16 15 13 12 10 9 7 5 4 4 4 3 4 4 6 7
35 27 19 29 23 18 18 18 19 21 20 20 21 19 17 16 16 13 12 11 11 12 14 14 14 13 13 13 13 12 11 9 9 9 8 6 4 3 1 4 3 4 6
36 31 21 26 19 14 16 17 18 21 21 21 19 17 14 12 11 11 12 14 14 14 15 13 12 11 10 10 9 9 9 9 9 9 9 8 6 3 2 3 2 4 6
31 35 40 29 12 12 13 15 17 19 20 19 17 13 14 13 14 15 15 16 16 14 12 12 10 9 9 9 9 9 9 10 11 11 12 11 5 3 0 2 3 3 4
33 32 36 25 18 16 15 17 20 19 17 15 15 15 14 14 14 15 17 16 15 11 11 11 11 10 10 9 10 10 10 11 12 14 15 12 3 3 5 4 2 2 3
26 27 26 23 18 17 18 18 19 18 17 16 15 14 13 13 15 15 15 15 14 13 11 9 10 9 8 9 10 10 10 10 10 12 13 10 4 6 6 6 2 2 1
21 25 17 15 18 17 19 20 19 18 17 16 14 13 14 15 15 15 16 16 14 11 8 6 7 8 7 8 9 12 7 8 8 11 12 12 8 4 3 3 2 2 1
28 23 19 16 19 19 20 19 19 18 17 15 14 15 17 16 15 15 15 15 12 8 7 5 6 5 6 7 7 11 2 6 8 10 13 7 7 7 6 4 3 5 4
29 23 20 20 21 21 21 20 19 18 17 16 16 17 17 17 17 15 15 13 9 6 4 4 4 4 5 3 1 8 2 5 5 7 9 6 12 8 4 7 8 8 9
20 20 22 25 25 25 25 23 21 21 19 18 17 17 18 18 16 14 13 10 8 4 2 3 2 2 2 1 2 6 3 7 6 1 6 2 12 4 7 13 10 10 11
24 23 24 27 29 28 29 28 24 23 20 17 17 18 18 16 14 13 10 8 7 4 6 4 1 1 2 1 1 0 2 4 9 11 10 6 5 6 12 14 11 11 11
30 30 32 32 31 31 32 28 20 21 17 18 20 20 18 16 14 11 10 9 8 6 5 4 3 2 1 2 4 1 1 3 3 5 6 8 7 9 14 11 13 13 13
33 33 33 34 32 33 30 29 25 25 22 21 26 21 19 17 16 13 10 9 6 5 5 4 2 2 2 3 4 6 8 8 3 3 6 5 11 11 13 18 19 14 13
27 31 32 31 31 32 33 29 24 26 23 19 24 21 20 18 14 12 10 7 6 7 5 3 2 2 3 4 4 5 7 10 11 8 3 6 10 13 12 20 16 15 11
25 28 30 31 31 32 33 28 26 23 23 18 24 23 20 16 14 13 9 9 9 5 6 4 3 5 4 3 4 7 8 7 6 9 6 10 10 11 11 13 16 12 9

GFSSE_925_spd_069.txt.gz
Wind_Speed
27 29 32 32 34 34 36 37 36 35 32 29 27 26 24 22 21 19 20 21 21 20 22 23 23 23 22 22 22 22 22 21 21 22 21 20 21 21 21 22 21 21 22
32 30 32 34 34 35 36 36 34 32 30 28 26 25 22 21 21 22 22 23 23 22 23 23 21 21 22 23 23 21 20 21 20 21 21 20 20 20 20 21 20 20 22
34 30 31 34 35 35 35 34 32 30 28 26 25 24 22 23 25 25 24 25 24 21 19 19 20 22 23 23 23 21 20 20 20 21 22 19 19 20 21 22 22 21 20
33 31 29 33 35 35 35 33 32 29 27 25 24 23 23 26 25 25 25 26 24 22 22 21 21 22 25 23 21 20 20 20 20 20 18 17 17 19 20 20 21 19 19
30 31 31 35 35 34 33 32 28 26 25 24 24 24 24 25 24 26 26 25 24 23 24 24 24 26 25 23 20 19 20 19 19 18 17 15 15 16 18 19 18 19 19
32 30 35 37 36 34 33 30 28 26 25 24 26 24 24 24 24 27 26 25 25 24 24 24 25 26 24 21 19 19 18 18 17 15 15 15 14 15 16 17 18 18 18
33 30 36 35 34 35 32 30 28 27 26 26 26 24 23 25 26 27 26 25 25 25 24 23 23 23 21 19 19 18 16 15 14 13 13 12 11 12 14 15 16 17 18
29 30 32 32 32 32 30 29 29 28 26 26 26 23 25 26 27 27 26 24 24 24 23 22 21 19 19 19 17 15 14 14 12 11 11 9 9 10 11 12 14 16 17
26 28 29 29 30 29 26 28 28 28 28 26 25 23 25 26 26 26 24 22 21 20 21 21 20 21 21 18 16 15 14 11 9 9 9 8 8 8 9 11 12 13 15
22 29 28 30 29 24 22 26 26 27 27 25 24 24 25 24 23 22 21 20 20 19 20 21 20 20 19 16 15 14 9 8 8 8 7 6 5 5 6 7 8 11 12
25 24 31 30 27 18 22 22 21 21 23 25 25 25 24 23 21 19 17 16 18 19 21 20 19 18 18 16 12 9 6 7 6 6 6 4 6 4 3 5 6 8 9
26 31 36 40 33 31 19 18 18 20 24 26 26 24 23 22 20 18 16 14 15 19 19 18 18 17 16 15 12 8 9 8 7 6 6 2 4 3 2 4 5 7 8
25 32 37 35 34 31 23 19 20 22 25 25 24 23 22 21 19 17 16 14 17 17 19 18 17 15 14 12 10 9 8 8 7 6 5 4 3 2 1 3 5 6 7
27 44 38 34 27 19 17 19 20 21 25 25 24 22 21 19 18 16 15 17 16 16 16 14 14 13 12 10 9 8 8 9 9 8 8 7 4 2 3 4 3 5 6
24 37 35 30 24 17 19 20 21 22 23 23 21 19 17 17 15 16 18 19 17 15 13 12 11 10 10 10 10 10 10 10 10 11 10 6 1 2 1 3 3 3 4
32 34 36 34 20 8 14 18 20 21 22 21 20 15 16 16 18 19 19 19 17 14 13 11 10 9 10 9 9 9 10 10 11 11 9 8 5 2 7 4 2 1 1
24 29 30 20 12 13 15 17 19 21 19 19 18 16 18 16 17 19 19 18 16 14 12 10 10 9 9 8 9 9 7 7 8 10 10 9 6 4 2 2 2 0 1
26 26 22 14 12 12 14 17 19 20 19 19 18 18 16 16 17 18 18 17 16 13 11 10 9 9 8 7 8 8 3 3 5 8 8 7 7 5 4 3 2 3 4
28 26 20 16 17 17 15 17 19 20 18 18 17 17 17 18 18 17 18 18 15 12 10 8 8 6 6 4 4 7 1 4 3 4 5 6 7 7 4 4 5 8 9
22 20 21 17 16 16 19 20 19 19 18 18 16 19 20 18 18 18 18 17 13 10 9 8 6 5 4 2 1 3 4 7 5 2 1 1 8 5 2 6 10 11 12
21 21 20 20 19 22 24 20 18 19 18 16 15 18 20 20 19 18 18 15 12 9 8 6 4 3 2 1 2 5 4 9 9 5 5 4 5 2 5 8 12 10 11
26 26 25 24 26 26 23 22 18 19 17 17 19 20 20 19 18 19 18 15 13 10 8 6 5 3 3 3 2 2 2 4 10 11 9 8 6 4 7 10 10 10 13
26 28 26 24 27 26 23 22 17 20 17 17 20 21 21 19 19 19 16 14 11 8 10 8 7 6 4 4 4 2 2 3 9 4 5 8 7 7 9 12 11 15 14
26 24 22 22 23 25 26 25 25 22 19 15 25 24 22 21 20 18 16 12 10 11 9 8 7 7 4 3 4 7 8 7 4 6 4 6 7 12 11 13 15 14 12
23 28 26 25 25 25 26 27 26 22 22 20 22 22 21 21 20 18 16 14 15 11 9 7 7 4 3 4 5 4 6 7 9 9 9 10 11 13 15 14 15 14 11
22 24 24 23 23 24 25 27 26 25 22 18 22 21 21 21 21 19 18 18 13 11 5 7 5 4 4 5 5 6 6 7 7 8 10 15 15 16 14 12 12 12 8

GFSSE_925_spd_072.txt.gz
Wind_Speed
23 26 27 27 31 34 36 37 36 34 32 30 28 28 26 24 21 19 18 19 21 21 21 22 22 22 22 23 22 21 21 22 23 22 22 22 21 21 21 22 19 19 20
29 29 30 30 32 34 38 37 35 33 31 29 26 26 24 22 20 20 21 21 22 22 22 22 23 23 23 22 21 21 21 21 24 22 23 23 23 22 22 21 20 19 19
30 31 30 32 33 37 37 36 35 33 31 29 26 24 23 22 23 23 22 23 23 23 23 24 22 21 21 21 21 21 20 21 24 23 19 19 19 19 19 20 20 19 18
31 33 31 33 35 38 38 36 34 32 30 27 26 24 24 24 24 24 23 22 22 20 19 21 21 21 22 20 20 19 20 19 21 16 16 16 16 17 17 18 19 19 18
31 32 32 37 37 37 37 35 33 30 28 26 26 26 26 26 25 24 23 22 21 18 18 21 21 22 21 20 19 19 19 19 18 15 14 14 14 14 16 17 17 19 18
31 30 33 38 38 37 35 33 30 29 28 28 29 29 29 28 26 25 23 22 22 20 20 23 24 22 21 19 19 18 18 17 12 13 13 13 12 13 15 16 17 17 17
29 28 32 37 36 36 33 30 29 29 29 30 30 29 29 30 27 25 24 22 22 21 21 25 24 21 19 19 18 16 15 14 10 11 11 11 10 12 13 14 15 16 15
29 30 30 34 32 32 31 30 31 31 31 31 31 30 29 29 27 25 24 22 22 22 23 24 22 19 18 18 16 14 13 12 9 10 9 9 9 9 10 12 14 15 16
22 27 30 29 31 28 27 28 31 32 32 32 32 31 30 28 26 24 23 22 22 21 20 20 20 19 18 15 14 13 10 10 8 8 8 8 6 7 8 11 12 13 13
20 26 27 25 26 24 26 26 26 29 31 31 33 32 30 28 26 23 22 20 20 20 20 19 19 19 16 14 12 9 9 10 7 7 8 8 4 4 6 8 10 10 11
27 27 29 30 33 31 24 25 23 23 26 30 33 32 28 24 21 17 17 18 18 19 19 18 18 16 13 12 10 7 9 7 6 7 7 4 7 3 5 6 8 9 10
28 29 33 35 35 29 22 22 19 21 17 20 27 25 22 21 18 18 18 19 19 19 18 17 17 15 10 7 6 8 7 6 7 7 6 3 3 5 3 5 7 7 8
29 30 37 38 42 39 28 26 17 13 17 15 19 20 19 18 19 16 17 16 16 17 16 14 11 8 8 6 6 7 6 7 6 5 6 4 4 3 1 4 5 6 7
25 30 32 32 34 37 35 33 23 15 14 15 16 16 17 16 16 15 15 15 14 13 13 10 9 9 8 7 7 7 7 6 5 5 6 6 3 1 2 4 4 5 5
29 25 26 30 30 25 24 23 20 18 19 14 17 15 15 14 14 13 14 14 13 12 11 11 9 7 7 6 6 7 7 7 6 6 5 8 4 2 3 2 3 2 3
40 35 38 29 34 35 24 17 17 18 20 16 14 14 13 12 13 16 14 13 12 11 10 9 8 7 6 5 6 6 6 5 6 7 6 6 6 3 6 5 1 1 1
29 34 32 29 24 24 17 15 16 17 18 17 14 13 14 15 16 15 13 13 11 10 11 10 8 7 5 5 5 4 4 4 5 6 5 4 5 5 1 1 4 2 2
27 27 27 24 14 17 15 15 14 17 16 13 12 11 13 14 14 14 13 13 13 11 9 8 6 5 4 3 3 3 3 2 2 4 4 3 4 5 6 4 3 5 6
30 33 27 16 11 12 13 14 14 15 13 12 12 12 14 14 15 14 14 14 13 11 8 8 6 4 3 1 2 4 3 3 2 2 0 1 4 6 5 6 7 9 11
30 29 22 15 13 12 12 13 14 14 11 12 11 12 15 15 17 16 15 16 13 11 9 8 6 3 2 2 4 5 6 6 5 5 5 6 5 6 5 7 9 10 13
28 26 21 16 11 13 14 16 15 14 12 11 11 12 16 20 19 16 16 16 13 11 10 9 6 3 1 2 5 6 6 7 8 8 8 9 8 8 7 8 10 11 11
27 24 21 19 17 17 17 17 15 15 12 13 12 13 15 18 18 16 16 16 14 12 10 8 5 2 2 3 5 8 4 4 6 10 12 11 10 10 10 10 12 11 13
28 28 25 21 19 20 17 16 13 14 11 12 13 14 16 21 19 15 17 16 14 11 11 8 5 4 4 4 5 4 4 4 13 5 7 9 10 11 12 14 13 14 16
30 27 26 22 20 19 20 18 18 17 15 14 15 12 15 20 16 17 17 15 13 11 11 9 7 5 5 6 5 6 7 10 5 6 7 10 10 13 15 15 16 15 15
28 26 23 22 21 21 22 21 20 17 15 15 20 17 15 17 18 17 16 15 13 11 10 8 7 7 6 6 7 7 8 10 11 11 9 12 14 15 15 16 16 16 16
28 26 25 25 24 23 23 23 21 20 18 18 21 21 20 20 19 19 18 16 14 12 11 7 11 10 7 7 7 8 9 10 11 12 11 15 17 19 16 15 16 16 15

GFSSE_925_spd_075.txt.gz
Wind_Speed
22 25 25 26 29 34 34 34 33 32 30 29 27 26 25 23 22 20 20 21 22 23 22 21 22 21 21 22 23 24 25 26 25 25 25 25 24 23 22 23 21 21 22
28 28 27 28 31 35 36 35 34 32 31 29 28 26 24 22 21 21 22 23 23 22 22 22 21 22 22 22 22 23 24 24 22 23 26 25 24 23 22 24 24 22 22
29 29 28 31 32 36 37 36 34 32 29 28 27 25 23 22 22 24 24 24 23 22 21 21 22 22 22 21 21 22 23 22 21 20 20 19 20 21 22 23 22 21 20
29 29 28 32 34 35 36 36 33 30 28 28 26 24 23 23 24 25 25 23 21 20 21 20 21 22 21 20 20 21 20 17 12 9 16 18 18 20 20 21 21 19 19
30 30 29 34 34 37 36 34 32 30 28 28 26 25 24 24 26 25 25 21 20 19 20 20 20 21 20 19 19 19 18 17 18 16 15 17 15 17 17 17 18 19 19
32 34 34 36 37 36 35 34 32 30 30 28 26 26 25 25 26 25 23 22 18 19 20 19 20 20 18 18 17 16 12 8 9 13 15 15 14 15 16 18 18 18 18
29 31 31 35 36 36 35 33 31 30 29 28 27 27 26 25 25 24 24 22 20 23 23 21 20 18 17 17 15 13 12 15 14 11 13 13 11 13 15 16 17 17 17
27 33 35 35 34 32 32 30 31 30 29 30 30 29 28 26 24 21 22 21 20 22 23 22 19 17 17 15 13 11 9 7 9 10 12 11 11 11 12 14 15 15 16
23 35 34 34 33 30 29 29 28 29 30 31 30 30 29 26 24 21 21 21 20 21 22 20 18 17 15 13 11 10 11 10 9 9 11 10 8 8 10 12 13 13 14
21 16 26 27 28 26 24 25 26 28 30 31 31 30 29 26 24 21 21 20 20 20 20 19 17 16 13 11 10 9 7 8 8 8 10 9 5 5 8 10 11 11 12
30 31 28 28 29 29 25 23 22 23 24 26 28 30 30 27 23 17 16 18 18 19 18 18 17 13 11 10 7 8 8 7 6 7 8 6 9 5 6 8 9 9 10
26 29 30 34 40 36 26 22 21 19 20 20 26 23 21 24 16 16 19 18 17 17 17 16 14 12 9 6 3 6 6 6 6 7 7 4 3 6 5 7 7 8 8
29 32 36 42 42 42 32 32 25 21 18 18 18 19 20 17 19 16 17 15 16 16 15 13 10 5 5 4 4 5 5 5 6 5 6 7 3 4 2 6 6 6 7
21 30 39 44 43 37 31 35 27 27 19 19 16 15 16 19 19 16 15 14 15 12 12 9 7 7 6 6 6 5 6 5 5 5 8 9 5 5 4 5 5 5 5
23 28 27 33 29 38 27 32 27 21 19 21 17 19 20 18 17 16 16 14 13 12 11 9 8 7 6 5 4 4 4 5 5 5 3 7 5 3 4 3 2 2 3
26 31 27 25 30 25 24 24 20 16 14 17 18 15 12 15 16 14 15 14 13 12 10 9 7 6 5 4 4 3 3 4 4 4 2 3 7 1 4 5 2 1 1
30 27 25 22 23 27 22 14 17 15 14 15 15 12 11 13 14 16 14 14 13 12 12 10 8 6 5 3 3 2 2 2 2 2 2 2 2 4 3 5 3 2 0
27 32 32 31 28 30 30 27 19 17 17 15 13 15 12 13 14 14 14 14 14 13 11 10 8 7 5 3 1 1 2 2 1 1 1 1 2 3 2 1 6 7 9
24 27 35 32 32 29 21 21 18 16 17 16 16 15 15 13 14 14 15 14 15 13 11 10 9 6 4 2 2 3 3 4 3 3 2 2 3 5 6 3 6 9 8
27 31 29 24 21 22 18 16 15 17 17 16 17 15 16 15 15 14 13 14 14 13 11 10 9 6 3 1 4 5 6 4 5 5 5 7 6 6 7 6 9 8 8
28 32 28 21 19 18 17 18 19 20 16 15 14 13 15 14 15 15 13 14 14 12 12 11 9 6 5 2 5 6 8 8 7 7 8 9 8 9 8 9 10 9 11
31 30 23 19 15 18 18 18 19 18 17 15 14 14 14 19 19 16 15 15 14 13 12 11 9 7 4 3 2 8 5 3 10 11 10 9 9 10 12 11 10 11 12
31 28 25 21 18 18 17 17 16 15 13 12 14 14 14 14 16 17 16 16 15 14 13 11 9 6 4 2 1 3 4 3 14 12 5 9 8 11 11 12 14 13 13
30 30 26 24 24 21 19 19 19 19 17 17 16 14 16 18 16 16 17 17 16 14 13 12 8 4 1 4 3 6 6 9 4 5 11 13 10 13 11 14 15 15 15
31 30 29 26 23 22 21 21 21 19 18 13 15 15 19 21 18 18 18 17 16 14 13 11 8 5 2 5 7 10 10 11 12 13 9 14 14 14 13 15 15 16 16
31 31 30 28 26 22 23 25 22 23 16 17 17 18 19 19 21 21 20 18 17 15 13 12 10 7 9 9 8 9 11 11 13 14 11 15 15 17 17 17 17 16 16

GFSSE_925_spd_078.txt.gz
Wind_Speed
26 30 32 34 39 37 35 34 33 31 29 28 28 26 24 23 22 23 24 25 25 25 24 24 24 26 27 29 29 30 30 29 30 30 29 27 26 27 26 26 25 25 24
35 36 33 34 39 38 37 35 35 32 30 29 28 26 24 22 22 23 25 26 25 24 24 24 24 25 27 28 26 27 27 28 29 29 26 27 26 26 25 25 25 24 23
35 36 36 34 39 39 39 37 35 31 31 30 27 25 23 22 23 25 26 28 26 24 23 23 23 25 26 26 25 24 22 19 20 28 26 25 25 24 24 23 24 23 22
21 34 35 37 38 37 38 37 33 31 31 29 27 24 23 23 25 26 27 28 26 24 23 22 22 25 25 24 22 19 15 11 8 17 23 22 20 21 22 22 23 22 22
19 27 30 35 37 37 37 36 33 29 30 29 26 24 25 26 26 27 27 28 26 24 23 22 23 23 23 22 19 14 12 10 15 16 21 20 19 19 20 21 21 22 22
22 22 28 32 35 34 35 34 31 30 30 28 27 27 28 28 26 26 25 25 25 24 22 23 22 21 21 19 14 12 15 16 14 24 20 17 18 18 19 20 20 21 21
20 25 29 32 35 36 36 34 30 30 30 29 28 29 29 29 28 26 25 25 25 22 22 22 21 20 18 17 14 12 15 19 20 22 20 17 17 17 17 18 19 20 20
26 35 38 35 37 38 35 34 32 31 30 29 29 29 29 28 27 25 25 26 25 22 22 21 20 18 17 15 14 12 13 16 16 19 17 17 15 15 15 16 17 18 18
21 31 38 35 35 32 35 30 31 30 30 29 29 29 29 27 27 25 24 25 25 23 22 20 19 17 15 13 12 14 14 15 15 18 18 15 11 12 13 14 14 15 16
24 31 23 29 35 35 32 31 31 31 30 30 28 28 28 27 27 25 24 24 25 22 20 18 17 14 13 11 11 10 9 11 15 11 14 12 8 10 10 12 12 13 14
26 25 15 11 29 33 32 30 29 28 27 26 25 26 27 28 27 24 25 24 23 20 18 17 16 12 11 9 9 10 11 10 14 10 12 10 10 8 9 10 11 11 12
24 31 33 30 34 34 31 29 29 26 24 25 27 24 24 25 23 24 22 21 20 19 18 16 14 10 9 7 7 8 8 9 9 10 10 5 5 6 8 9 10 10 11
24 33 33 35 38 38 36 35 29 28 21 23 24 15 18 21 17 22 21 20 19 19 19 16 12 5 4 8 2 6 5 7 9 5 8 5 4 6 8 8 8 9 9
27 32 34 35 39 39 38 35 30 22 25 24 21 21 17 20 16 19 18 20 19 16 16 10 9 8 6 6 5 6 5 6 5 3 7 9 6 9 8 7 6 7 6
25 30 28 30 27 35 30 29 31 27 28 20 20 22 20 19 16 17 17 18 16 16 14 11 8 8 8 7 6 5 4 5 6 4 4 7 6 8 7 5 4 4 4
23 27 30 27 28 34 28 31 26 27 24 19 19 19 15 18 17 17 19 16 16 15 12 12 12 8 9 5 5 4 4 5 4 5 3 4 6 3 4 4 3 2 0
28 29 29 30 30 31 23 20 24 21 20 19 14 14 13 18 20 19 17 15 13 15 16 14 12 10 8 8 5 5 2 4 3 3 4 2 3 4 1 3 6 5 3
31 29 28 30 27 24 23 21 22 17 15 14 11 15 16 18 20 19 18 17 15 18 17 12 12 9 9 7 6 3 2 2 2 1 2 3 5 1 3 1 2 5 8
28 29 35 35 35 34 34 30 26 24 12 17 23 22 22 18 17 19 19 17 17 14 14 13 12 11 9 6 5 6 5 4 4 5 3 6 5 2 1 5 3 9 6
30 33 33 33 32 34 36 37 27 22 23 22 21 18 17 14 17 17 17 18 16 15 15 13 13 9 8 6 2 1 6 9 9 9 7 9 7 6 5 5 4 9 6
30 31 33 31 35 35 28 28 24 24 22 22 20 19 20 17 18 16 17 16 18 17 16 14 13 10 6 3 2 9 11 18 14 12 10 10 9 7 6 9 9 7 6
32 30 30 30 33 30 27 25 23 20 22 20 21 21 19 19 19 19 17 18 19 18 17 17 14 12 6 7 0 6 3 5 11 14 13 12 11 9 9 10 10 8 12
34 34 32 32 31 28 28 24 21 19 19 20 20 19 21 22 23 23 18 20 20 18 18 17 15 10 8 11 9 3 2 1 3 5 16 16 11 12 11 12 14 13 13
32 33 31 28 27 26 28 25 24 21 19 17 18 19 21 18 18 19 16 18 21 17 17 18 14 11 9 5 8 8 10 6 2 3 7 13 9 15 15 16 13 14 15
35 34 31 29 26 26 26 21 26 25 24 21 24 23 24 23 25 28 23 23 23 20 18 20 18 15 10 8 8 8 9 6 10 10 4 11 12 12 8 10 12 12 14
32 36 35 29 30 32 33 30 25 25 27 23 25 27 25 23 27 26 23 24 21 22 17 20 17 14 11 10 7 6 6 5 7 9 4 10 10 14 16 15 15 16 17

GFSSE_925_spd_081.txt.gz
Wind_Speed
9 26 28 34 34 35 35 33 33 33 33 32 31 30 29 29 30 31 31 31 30 29 27 29 32 34 35 34 35 35 34 32 32 32 31 30 28 27 26 26 27 26 24
16 21 30 37 36 36 36 35 34 33 32 34 32 31 30 29 31 31 32 31 30 28 27 31 33 32 32 33 34 35 35 33 30 28 30 28 26 25 25 25 25 24 22
14 6 22 32 34 34 34 34 33 32 32 31 32 30 29 29 32 34 30 30 30 29 27 30 31 30 30 29 28 28 30 25 26 25 25 26 25 24 24 24 23 23 22
29 6 5 27 28 29 32 33 31 31 29 28 29 28 29 31 33 34 31 30 29 28 26 29 30 28 27 24 22 18 15 19 22 21 22 23 23 22 22 23 24 23 22
28 28 29 27 31 31 33 34 34 31 30 28 27 27 29 32 35 33 31 31 30 27 26 29 29 26 24 21 20 17 16 19 23 21 20 21 23 21 22 22 23 23 23
25 41 35 35 36 36 36 34 35 34 32 30 29 29 31 32 35 33 32 30 29 26 25 28 27 25 22 19 19 20 19 23 20 22 23 23 22 20 21 22 23 22 22
25 33 32 46 43 41 38 36 35 34 32 32 31 31 31 32 33 33 31 29 27 28 27 27 25 22 20 16 17 23 26 21 21 22 22 22 20 19 20 20 21 20 21
13 9 34 41 45 44 40 37 36 34 32 32 32 31 32 32 32 32 31 28 27 27 26 25 22 21 19 16 17 22 24 21 22 21 20 19 18 18 18 18 19 19 20
17 27 38 43 43 42 41 37 37 34 33 32 32 31 30 30 30 32 31 28 27 27 25 24 20 18 17 15 18 17 23 22 19 19 19 17 15 15 15 16 17 18 18
14 13 23 21 43 43 40 39 37 35 33 31 32 31 30 29 29 31 29 27 27 25 23 22 20 17 16 15 14 15 20 15 18 17 16 14 13 12 14 15 16 17 16
19 20 9 24 39 43 41 37 35 34 32 32 32 31 30 29 30 30 29 28 25 24 22 20 18 16 14 14 13 13 16 12 13 14 13 12 11 10 12 13 14 15 14
18 27 22 19 29 35 37 37 35 34 32 33 32 31 32 29 29 29 28 25 23 21 20 18 17 15 13 10 8 10 11 10 11 11 10 7 9 9 10 11 12 12 13
25 24 26 28 31 34 35 37 36 36 35 32 31 30 28 27 27 29 27 24 22 21 21 18 17 11 7 9 9 10 13 9 8 9 10 6 9 9 9 10 9 10 11
25 33 34 40 40 38 39 37 36 39 37 28 30 22 23 25 24 26 25 23 22 21 20 15 14 12 10 6 6 8 9 6 7 7 9 9 9 12 9 8 8 8 8
24 31 34 39 40 38 39 37 35 36 39 31 25 20 23 22 24 23 22 21 20 20 17 15 12 10 8 8 8 7 8 5 8 5 9 10 8 10 8 6 5 5 5
24 29 33 35 36 39 38 35 35 34 29 22 24 21 18 22 22 21 21 21 18 18 16 11 13 9 9 6 6 6 7 7 4 7 6 9 8 6 4 4 4 3 1
21 26 32 31 32 31 30 28 28 31 17 22 23 19 19 20 23 19 20 19 20 21 14 13 12 10 10 6 5 6 7 7 6 3 5 6 7 5 3 0 2 4 4
31 28 30 31 31 29 29 33 35 27 24 23 23 20 20 14 18 22 21 22 19 20 17 18 15 14 10 9 7 8 9 5 3 7 4 5 5 2 1 2 0 3 5
31 31 32 34 34 31 28 26 27 27 25 22 20 20 16 16 15 21 22 20 20 19 22 19 15 14 13 12 12 12 9 7 5 8 11 7 4 5 4 5 3 2 5
30 33 39 38 38 38 33 28 29 25 20 20 23 18 18 15 15 21 20 22 22 21 18 16 16 15 14 11 7 13 11 9 8 10 8 6 7 9 5 5 9 4 6
18 24 29 32 37 35 31 32 33 30 24 29 25 20 23 22 21 24 22 23 22 19 19 19 18 13 12 11 7 4 7 12 14 13 11 10 9 8 6 8 9 10 8
25 23 25 34 37 38 36 33 29 29 22 24 27 28 27 27 26 25 22 26 22 20 21 20 20 16 11 11 6 2 1 1 11 12 13 13 13 13 14 11 10 11 9
26 30 29 32 37 38 36 32 24 24 27 30 33 33 30 27 27 25 23 26 24 24 26 25 21 18 13 15 12 4 1 3 1 3 12 17 13 15 17 17 14 16 16
31 31 32 34 41 39 37 30 27 25 22 27 33 32 28 29 29 27 27 26 25 25 28 27 23 20 14 16 12 9 6 3 3 2 4 4 7 14 19 18 17 16 16
36 34 34 33 33 36 36 35 30 31 32 29 30 29 27 29 27 27 29 26 27 30 27 26 25 23 17 17 15 9 8 9 11 5 3 5 5 4 3 4 6 7 11
37 37 35 34 35 37 38 38 36 33 32 31 29 31 30 30 27 27 29 26 28 29 26 26 26 26 21 17 11 9 7 4 4 3 3 6 7 11 14 11 12 14 15

GFSSE_925_spd_084.txt.gz
Wind_Speed
22 30 27 38 23 25 35 29 25 30 34 37 38 39 38 38 36 35 35 34 32 32 31 32 36 36 35 33 34 34 33 32 32 30 29 28 26 25 25 24 25 25 24
27 32 28 27 32 27 27 30 27 29 32 33 33 33 33 33 34 33 33 33 34 32 32 32 36 34 33 34 36 32 30 28 28 29 28 27 26 25 24 25 25 23 23
35 34 24 21 28 31 29 30 30 31 32 32 32 32 33 33 34 33 32 33 32 32 31 31 32 32 32 32 30 22 22 25 26 26 28 28 26 24 24 24 24 23 23
21 25 38 31 21 26 29 33 33 33 33 33 33 33 35 37 34 33 33 33 34 32 31 30 29 30 28 23 18 16 20 23 25 25 26 27 26 23 24 23 23 23 23
18 22 32 36 31 22 31 33 34 34 34 34 34 35 39 37 35 33 34 34 35 32 29 29 28 27 23 19 15 19 25 23 25 25 25 25 25 22 22 22 22 22 22
20 20 33 37 36 40 36 36 35 35 35 34 34 36 40 37 35 34 34 35 34 32 30 30 28 25 23 19 17 24 23 23 23 25 24 24 24 21 21 21 21 21 21
20 19 24 30 38 40 43 40 38 37 36 35 37 38 40 36 34 35 34 35 34 32 30 27 26 23 26 24 28 28 24 20 22 24 22 23 21 20 19 19 20 20 21
14 15 20 18 27 38 49 44 41 38 36 36 37 40 41 38 36 35 33 33 34 32 30 26 24 22 26 27 24 25 21 20 23 22 21 21 19 18 18 18 20 20 21
20 17 12 7 17 42 31 45 42 40 37 37 38 39 40 38 35 34 32 32 32 30 27 25 22 21 23 25 23 20 19 18 19 18 17 18 17 16 17 17 18 19 20
8 10 11 12 23 36 53 45 42 40 38 38 38 38 39 37 35 32 31 31 30 28 25 23 21 19 19 22 24 20 17 18 17 16 15 16 15 15 15 16 16 17 18
7 4 9 20 39 34 51 45 39 39 38 37 38 37 36 36 33 31 30 29 28 26 24 21 20 18 17 21 21 17 17 16 15 14 13 14 14 13 14 15 15 16 16
17 14 14 22 41 53 42 42 41 40 39 39 38 38 37 36 34 32 30 29 26 25 23 20 19 17 13 15 14 14 14 14 13 12 12 12 13 12 13 13 14 14 14
14 10 12 21 31 39 34 32 35 39 40 40 38 37 37 34 31 32 29 28 26 25 23 20 19 12 13 14 12 13 11 10 11 12 11 12 12 11 11 11 12 12 13
16 15 17 26 32 35 34 30 35 37 39 37 37 37 37 37 33 33 31 28 27 26 22 20 15 12 13 13 11 10 9 8 10 11 11 9 13 10 10 10 10 10 10
21 21 22 29 34 37 36 35 36 37 38 38 35 35 36 34 32 31 29 27 26 24 22 19 16 13 11 11 12 9 8 9 8 9 10 10 14 11 9 7 7 7 7
21 27 28 32 36 40 40 36 35 33 35 30 33 32 33 33 32 29 28 27 26 24 19 17 14 13 11 9 10 9 7 6 6 7 9 11 10 9 9 7 6 4 3
19 27 30 35 38 40 39 39 38 34 33 29 24 25 25 28 27 28 29 27 25 21 18 14 15 13 12 10 10 10 8 4 4 7 9 10 9 7 5 4 4 2 1
23 22 31 32 37 38 40 39 37 30 28 31 23 23 23 25 25 25 27 25 22 21 19 17 17 15 11 11 11 11 10 9 5 6 8 7 7 5 2 3 3 1 2
25 26 26 30 33 35 36 36 31 27 29 31 27 25 20 19 20 24 25 20 22 24 21 20 19 16 15 13 11 11 13 13 11 7 7 6 5 5 4 3 4 3 2
24 28 26 26 30 30 26 28 24 23 21 28 24 29 20 17 21 22 21 23 24 24 21 24 21 17 14 12 13 12 14 12 12 12 11 10 8 8 8 6 7 9 6
15 22 29 34 32 34 35 34 32 31 33 30 26 28 23 24 19 20 19 22 23 24 27 26 21 19 16 15 13 11 13 13 14 15 16 14 13 13 13 11 11 11 10
18 21 22 28 36 33 32 32 28 27 30 29 30 29 23 26 20 15 19 24 28 27 29 27 26 22 19 20 10 6 1 4 16 17 16 14 13 11 15 14 14 13 12
18 26 29 30 37 38 36 32 29 28 28 28 28 27 25 22 17 18 22 28 32 33 32 30 27 28 22 21 18 7 2 4 2 8 16 18 16 15 17 16 15 13 12
27 28 27 32 34 37 36 32 29 24 21 25 29 28 24 22 22 25 26 31 31 36 32 30 29 31 28 23 19 18 10 7 3 1 5 7 5 10 14 18 16 13 14
29 33 30 34 37 36 38 37 33 27 27 27 28 29 31 31 31 31 32 35 36 35 32 32 33 32 30 28 25 19 13 10 8 3 3 6 7 5 3 5 8 8 8
29 32 32 31 36 39 39 39 35 30 29 30 33 34 37 38 36 35 34 36 35 35 35 34 36 34 32 28 29 20 15 6 7 5 2 6 8 10 10 8 9 9 9

GFSSE_925_spd_087.txt.gz
Wind_Speed
17 21 29 26 28 36 36 38 34 35 37 38 38 39 38 37 36 34 33 32 32 32 32 32 33 31 31 30 28 28 29 30 29 27 26 25 24 25 24 24 27 25 24
20 25 30 26 27 29 35 32 32 38 36 36 36 37 37 37 36 34 33 34 35 32 32 33 33 32 31 29 28 27 28 30 29 26 26 25 25 25 25 26 26 25 24
15 28 27 28 27 27 34 38 37 38 38 37 38 38 38 38 37 36 38 37 34 33 32 32 32 31 30 28 27 26 27 27 28 27 28 29 26 25 25 26 25 24 25
18 24 25 33 34 27 27 34 40 38 39 37 37 39 39 38 38 40 41 39 34 34 32 31 29 25 22 20 22 24 25 26 26 26 29 27 27 24 24 24 25 24 25
23 26 26 28 33 29 26 20 32 36 36 37 38 39 38 38 40 40 40 36 36 34 31 28 26 23 20 20 24 23 25 26 26 26 27 27 27 24 22 23 23 23 24
22 24 27 29 31 40 35 21 19 36 38 38 37 38 37 37 41 42 40 37 34 34 30 28 25 19 20 24 25 24 24 24 24 25 27 25 25 23 22 23 23 23 22
16 18 31 34 35 34 30 41 26 30 37 38 38 37 37 37 41 43 42 38 35 34 32 29 24 21 24 30 26 24 23 23 23 24 25 25 24 22 22 22 23 23 22
19 23 27 34 38 33 39 44 40 26 37 38 40 40 37 37 39 40 42 38 37 35 31 29 26 25 30 30 25 22 21 21 22 22 22 23 21 21 21 21 21 22 22
17 20 25 27 35 30 43 46 46 37 38 38 40 39 39 39 39 38 39 39 37 34 31 29 28 27 28 28 24 21 19 19 19 20 20 21 20 20 19 20 20 21 21
16 20 28 32 35 37 39 43 42 37 37 44 42 40 39 38 38 37 37 37 35 32 30 29 27 27 26 24 21 18 18 18 18 18 19 20 18 18 18 18 19 19 20
15 18 21 24 18 39 45 45 42 36 37 44 43 41 40 37 36 35 36 34 32 31 29 28 26 27 27 24 19 18 17 17 16 16 18 17 16 16 17 16 17 17 18
13 15 8 17 32 34 44 45 42 34 31 34 43 42 37 34 36 35 34 33 31 29 27 26 23 25 24 20 20 18 17 15 14 16 17 16 15 15 15 15 16 16 15
10 3 6 11 23 57 45 35 39 35 31 31 42 40 33 34 36 37 34 31 29 28 27 25 23 20 18 16 18 17 15 14 14 14 15 15 14 13 14 14 13 13 13
6 2 6 5 20 34 44 47 47 38 37 38 42 42 37 35 37 36 35 33 31 27 27 23 21 20 18 16 15 14 14 12 12 14 15 15 14 12 12 11 11 11 11
10 7 12 16 26 30 35 41 42 41 39 41 41 41 40 40 40 39 34 32 30 27 26 23 20 19 16 15 13 12 12 12 12 12 13 16 13 12 11 10 10 9 9
13 14 17 22 26 35 36 36 40 39 36 39 38 38 40 41 41 39 33 31 28 25 24 21 20 20 16 13 14 12 12 10 10 10 13 16 12 12 11 9 8 7 5
17 19 22 26 32 32 34 40 39 36 36 39 41 40 38 39 38 37 32 30 29 26 21 19 17 17 17 15 13 11 10 9 9 8 10 12 12 11 10 9 8 7 5
17 19 24 29 32 36 38 37 34 33 34 35 35 33 32 32 34 32 32 29 28 24 22 20 19 17 16 14 14 12 11 8 7 8 10 11 11 9 6 4 3 3 2
19 20 21 29 34 38 35 36 33 34 32 28 28 27 27 28 26 28 28 28 28 24 22 20 18 18 18 16 13 12 12 10 8 9 10 12 11 9 6 5 4 4 3
19 19 20 23 36 38 36 29 26 27 29 25 23 22 25 22 21 22 25 26 25 25 23 20 21 20 18 16 14 13 13 12 11 11 13 14 12 9 8 7 7 8 7
18 21 25 25 30 35 30 27 28 27 33 27 22 23 23 22 20 19 25 24 25 28 25 25 23 22 19 18 16 12 12 14 15 17 18 17 16 13 12 12 11 11 11
20 23 23 25 27 25 25 23 23 29 33 32 26 24 24 24 21 22 26 26 27 28 28 28 28 23 18 21 10 6 1 5 16 19 19 20 18 16 17 16 16 16 16
19 22 25 28 31 29 28 26 23 21 26 26 30 27 24 25 22 20 21 25 30 31 31 31 30 28 24 23 15 7 2 4 2 8 18 20 20 20 18 19 19 19 19
22 24 27 32 32 31 29 30 28 26 25 27 30 29 23 22 22 22 26 29 32 29 29 31 31 31 30 26 22 18 9 7 4 1 8 14 20 21 18 17 18 17 16
20 27 27 29 34 32 31 31 32 28 29 30 30 28 25 26 29 32 32 28 27 29 33 34 35 34 33 30 30 18 16 11 7 3 3 6 11 12 12 11 12 12 10
24 27 30 29 31 35 34 34 34 30 31 31 33 29 32 34 34 33 31 28 28 30 34 35 36 35 37 35 32 25 12 3 5 4 2 3 7 7 10 9 10 12 12